M I D A S
Marine Information and Data Acquisition System
Tripno 2040 of the Zeeleeuw from 2011-02-14 07:40:22 to 2011-02-14 15:44:08
Back to CruiseResearch ActivitiesStationsMapUnderway DataData graphs

EquipmentUnitsComment
TimeDGPSUTC
LatitudeDGPSDM.mWGS84
LongitudeDGPSDM.mWGS84
TemperatureSBE03/SBE38deg celciusITS90
ConductivitySBE21S/mITS90
SalinitySBE21 Practical Salinity Units
ChlorophylAChelsea fluorimeterg/lCalibrated in Aceton
Missing or incorrect values are displayed as -999
Sea surface data collected by the RV Zeeleeuw from 2011-02-14 07:12:17 to 2011-02-14 15:47:59
                                                                                    Next 1000 lines
Time Latitude Longitude Temperature Conductivity Salinity ChlorophylA
2011-02-14 07:12:27 51°13.657 2°55.952 13.6374 0.093255 0.450149 -0.199615
2011-02-14 07:12:32 51°13.664 2°55.959 13.6397 0.093255 0.450149 -0.129967
2011-02-14 07:12:37 51°13.665 2°55.959 13.6393 0.093255 0.450149 -0.129967
2011-02-14 07:12:42 51°13.665 2°55.959 13.641 0.093255 0.450149 -0.164791
2011-02-14 07:12:47 51°13.665 2°55.959 13.6416 0.093255 0.450155 -0.164791
2011-02-14 07:12:52 51°13.665 2°55.959 13.6417 0.093255 0.450155 -0.164791
2011-02-14 07:12:57 51°13.665 2°55.96 13.6434 0.093255 0.450161 -0.164791
2011-02-14 07:13:02 51°13.665 2°55.96 13.6468 0.093255 0.450155 -0.129967
2011-02-14 07:13:07 51°13.665 2°55.96 13.6497 0.093255 0.450155 -0.129967
2011-02-14 07:13:12 51°13.665 2°55.961 13.652 0.093255 0.450161 -0.164791
2011-02-14 07:13:17 51°13.665 2°55.959 13.6512 0.093255 0.450161 -0.164791
2011-02-14 07:13:22 51°13.665 2°55.959 13.6496 0.093255 0.450161 -0.164791
2011-02-14 07:13:27 51°13.664 2°55.959 13.647 0.093255 0.450167 -0.164791
2011-02-14 07:13:32 51°13.664 2°55.959 13.6413 0.093255 0.450167 -0.164791
2011-02-14 07:13:37 51°13.664 2°55.959 13.6454 0.093255 0.450167 -0.164791
2011-02-14 07:13:42 51°13.664 2°55.959 13.6441 0.093255 0.450167 -0.164791
2011-02-14 07:13:47 51°13.664 2°55.959 13.6465 0.093255 0.450167 -0.164791
2011-02-14 07:13:52 51°13.663 2°55.958 13.6487 0.093255 0.450174 -0.164791
2011-02-14 07:13:57 51°13.663 2°55.958 13.6457 0.093255 0.450174 -0.129967
2011-02-14 07:14:02 51°13.662 2°55.958 13.6443 0.093255 0.45018 -0.164791
2011-02-14 07:14:07 51°13.662 2°55.958 13.6407 0.093255 0.45018 -0.164791
2011-02-14 07:14:12 51°13.662 2°55.958 13.638 0.093255 0.45018 -0.164791
2011-02-14 07:14:17 51°13.662 2°55.958 13.6349 0.093255 0.450174 -0.164791
2011-02-14 07:14:22 51°13.662 2°55.958 13.6333 0.093255 0.450186 -0.164791
2011-02-14 07:14:27 51°13.662 2°55.958 13.6292 0.093255 0.450186 -0.164791
2011-02-14 07:14:32 51°13.662 2°55.958 13.6302 0.093255 0.450186 -0.199615
2011-02-14 07:14:37 51°13.662 2°55.958 13.6287 0.093255 0.450186 -0.199615
2011-02-14 07:14:41 51°13.662 2°55.958 13.6291 0.093255 0.45018 -0.164791
2011-02-14 07:14:47 51°13.662 2°55.958 13.6306 0.093255 0.450186 -0.199615
2011-02-14 07:14:52 51°13.662 2°55.957 13.6305 0.093255 0.450192 -0.199615
2011-02-14 07:14:56 51°13.662 2°55.958 13.6313 0.093255 0.450192 -0.164791
2011-02-14 07:15:01 51°13.662 2°55.958 13.6295 0.093255 0.450198 -0.199615
2011-02-14 07:15:06 51°13.662 2°55.957 13.6347 0.093255 0.450198 -0.199615
2011-02-14 07:15:11 51°13.662 2°55.957 13.6357 0.093255 0.450192 -0.199615
2011-02-14 07:15:16 51°13.662 2°55.957 13.636 0.093255 0.450192 -0.164791
2011-02-14 07:15:20 51°13.662 2°55.957 13.6345 0.093255 0.450198 -0.164791
2011-02-14 07:15:25 51°13.662 2°55.957 13.6341 0.093255 0.450198 -0.164791
2011-02-14 07:15:30 51°13.662 2°55.957 13.6304 0.093255 0.450204 -0.129967
2011-02-14 07:15:35 51°13.662 2°55.957 13.6315 0.093255 0.450204 -0.129967
2011-02-14 07:15:40 51°13.662 2°55.956 13.6328 0.093255 0.450204 -0.164791
2011-02-14 07:15:44 51°13.662 2°55.957 13.6338 0.093255 0.45021 -0.164791
2011-02-14 07:15:49 51°13.662 2°55.957 13.636 0.093255 0.45021 -0.164791
2011-02-14 07:15:55 51°13.662 2°55.957 13.6344 0.093255 0.45021 -0.199615
2011-02-14 07:15:59 51°13.662 2°55.957 13.6303 0.093255 0.45021 -0.164791
2011-02-14 07:16:04 51°13.662 2°55.956 13.6326 0.093255 0.45021 -0.164791
2011-02-14 07:16:08 51°13.662 2°55.956 13.6282 0.093255 0.45021 -0.164791
2011-02-14 07:16:14 51°13.662 2°55.957 13.6329 0.093255 0.45021 -0.164791
2011-02-14 07:16:19 51°13.662 2°55.957 13.6302 0.093255 0.450216 -0.164791
2011-02-14 07:16:24 51°13.662 2°55.957 13.6346 0.093255 0.450222 -0.129967
2011-02-14 07:16:28 51°13.662 2°55.957 13.6336 0.093255 0.450222 -0.199615
2011-02-14 07:16:34 51°13.662 2°55.958 13.6343 0.093255 0.450222 -0.199615
2011-02-14 07:16:38 51°13.662 2°55.958 13.6349 0.093255 0.450228 -0.199615
2011-02-14 07:16:44 51°13.662 2°55.958 13.6353 0.093255 0.450228 -0.164791
2011-02-14 07:16:48 51°13.662 2°55.958 13.6382 0.093255 0.450222 -0.234439
2011-02-14 07:16:54 51°13.662 2°55.957 13.6396 0.093255 0.450228 -0.164791
2011-02-14 07:16:59 51°13.662 2°55.957 13.6394 0.093255 0.450228 -0.164791
2011-02-14 07:17:04 51°13.662 2°55.957 13.64 0.093255 0.450228 -0.164791
2011-02-14 07:17:10 51°13.662 2°55.957 13.6387 0.093255 0.450234 -0.164791
2011-02-14 07:17:16 51°13.663 2°55.958 13.6393 0.093255 0.450234 -0.164791
2011-02-14 07:17:21 51°13.663 2°55.958 13.6372 0.093255 0.450228 -0.164791
2011-02-14 07:17:26 51°13.663 2°55.958 13.6375 0.093255 0.450234 -0.164791
2011-02-14 07:17:31 51°13.663 2°55.957 13.6381 0.093255 0.450241 -0.164791
2011-02-14 07:17:36 51°13.663 2°55.958 13.6368 0.093255 0.450241 -0.164791
2011-02-14 07:17:40 51°13.663 2°55.958 13.6364 0.093255 0.450241 -0.199615
2011-02-14 07:17:45 51°13.663 2°55.957 13.6375 0.093255 0.450241 -0.164791
2011-02-14 07:17:51 51°13.663 2°55.957 13.6362 0.093255 0.450241 -0.129967
2011-02-14 07:17:56 51°13.663 2°55.957 13.6339 0.093255 0.450241 -0.164791
2011-02-14 07:18:00 51°13.663 2°55.957 13.6343 0.093255 0.450247 -0.199615
2011-02-14 07:18:06 51°13.663 2°55.957 13.6323 0.093255 0.450247 -0.199615
2011-02-14 07:18:12 51°13.663 2°55.957 13.6351 0.093255 0.450247 -0.199615
2011-02-14 07:18:17 51°13.663 2°55.957 13.6353 0.093255 0.450247 -0.199615
2011-02-14 07:18:22 51°13.663 2°55.957 13.6354 0.093255 0.450247 -0.164791
2011-02-14 07:18:27 51°13.663 2°55.957 13.6378 0.093255 0.450253 -0.164791
2011-02-14 07:18:32 51°13.663 2°55.957 13.6376 0.093255 0.450259 -0.164791
2011-02-14 07:18:36 51°13.663 2°55.957 13.6419 0.093255 0.450259 -0.164791
2011-02-14 07:18:41 51°13.663 2°55.957 13.6402 0.093255 0.450259 -0.164791
2011-02-14 07:18:46 51°13.663 2°55.957 13.6424 0.093255 0.450265 -0.164791
2011-02-14 07:18:51 51°13.663 2°55.957 13.6486 0.093255 0.450259 -0.164791
2011-02-14 07:18:56 51°13.663 2°55.957 13.6496 0.093255 0.450265 -0.164791
2011-02-14 07:19:00 51°13.663 2°55.957 13.657 0.093255 0.450265 -0.164791
2011-02-14 07:19:06 51°13.663 2°55.957 13.6517 0.093255 0.450265 -0.164791
2011-02-14 07:19:11 51°13.663 2°55.957 13.6496 0.093255 0.450265 -0.199615
2011-02-14 07:19:16 51°13.663 2°55.957 13.6672 0.093255 0.450271 -0.164791
2011-02-14 07:19:20 51°13.663 2°55.957 13.6667 0.093255 0.450271 -0.164791
2011-02-14 07:19:26 51°13.663 2°55.957 13.6602 0.093255 0.450271 -0.199615
2011-02-14 07:19:32 51°13.663 2°55.957 13.6561 0.093255 0.450277 -0.164791
2011-02-14 07:19:36 51°13.663 2°55.957 13.6669 0.093255 0.450277 -0.164791
2011-02-14 07:19:41 51°13.663 2°55.957 13.6813 0.093255 0.450271 -0.164791
2011-02-14 07:19:47 51°13.663 2°55.957 13.7112 0.093255 0.450283 -0.164791
2011-02-14 07:19:52 51°13.663 2°55.957 13.7489 0.093255 0.450283 -0.164791
2011-02-14 07:19:57 51°13.663 2°55.957 13.763 0.093255 0.450289 -0.164791
2011-02-14 07:20:01 51°13.663 2°55.957 13.7727 0.093255 0.450295 -0.199615
2011-02-14 07:20:06 51°13.663 2°55.957 13.7767 0.093255 0.450295 -0.199615
2011-02-14 07:20:11 51°13.662 2°55.957 13.7773 0.093255 0.450295 -0.164791
2011-02-14 07:20:16 51°13.662 2°55.957 13.7721 0.093255 0.450295 -0.164791
2011-02-14 07:20:21 51°13.662 2°55.957 13.7687 0.093255 0.450302 -0.164791
2011-02-14 07:20:26 51°13.662 2°55.957 13.7508 0.093255 0.450302 -0.164791
2011-02-14 07:20:31 51°13.662 2°55.957 13.7376 0.093255 0.450302 -0.129967
2011-02-14 07:20:36 51°13.663 2°55.958 13.7305 0.093255 0.450302 -0.129967
2011-02-14 07:20:40 51°13.662 2°55.958 13.7243 0.093255 0.450308 -0.199615
2011-02-14 07:20:45 51°13.662 2°55.957 13.7235 0.093255 0.450314 -0.164791
2011-02-14 07:20:51 51°13.662 2°55.957 13.7218 0.093255 0.450314 -0.164791
2011-02-14 07:20:56 51°13.662 2°55.958 13.7229 0.093255 0.450314 -0.164791
2011-02-14 07:21:01 51°13.662 2°55.958 13.7202 0.093255 0.45032 -0.164791
2011-02-14 07:21:07 51°13.662 2°55.958 13.7142 0.093255 0.45032 -0.164791
2011-02-14 07:21:12 51°13.662 2°55.958 13.7124 0.093255 0.450314 -0.164791
2011-02-14 07:21:17 51°13.663 2°55.959 13.7103 0.093255 0.45032 -0.199615
2011-02-14 07:21:22 51°13.663 2°55.959 13.7086 0.093255 0.450314 -0.164791
2011-02-14 07:21:27 51°13.663 2°55.959 13.7055 0.093255 0.45032 -0.164791
2011-02-14 07:21:32 51°13.664 2°55.959 13.7048 0.093255 0.45032 -0.199615
2011-02-14 07:21:37 51°13.664 2°55.959 13.7029 0.093255 0.45032 -0.199615
2011-02-14 07:21:42 51°13.663 2°55.959 13.7024 0.093255 0.450326 -0.199615
2011-02-14 07:21:47 51°13.663 2°55.959 13.7043 0.093255 0.450332 -0.164791
2011-02-14 07:21:52 51°13.663 2°55.959 13.703 0.093255 0.450332 -0.129967
2011-02-14 07:21:56 51°13.663 2°55.959 13.7009 0.093255 0.450332 -0.164791
2011-02-14 07:22:01 51°13.663 2°55.959 13.6993 0.093255 0.450332 -0.164791
2011-02-14 07:22:06 51°13.664 2°55.959 13.6977 0.093255 0.450332 -0.164791
2011-02-14 07:22:11 51°13.664 2°55.959 13.6907 0.093255 0.450338 -0.164791
2011-02-14 07:22:16 51°13.664 2°55.959 13.6858 0.093255 0.450338 -0.164791
2011-02-14 07:22:21 51°13.664 2°55.959 13.6802 0.093255 0.450338 -0.164791
2011-02-14 07:22:26 51°13.664 2°55.959 13.6782 0.093151 0.44983 -0.199615
2011-02-14 07:22:31 51°13.664 2°55.959 13.6756 0.093151 0.449824 -0.164791
2011-02-14 07:22:36 51°13.663 2°55.958 13.674 0.093151 0.449824 -0.164791
2011-02-14 07:22:41 51°13.662 2°55.957 13.6738 0.093255 0.45035 -0.164791
2011-02-14 07:22:46 51°13.662 2°55.957 13.6752 0.093255 0.45035 -0.164791
2011-02-14 07:22:50 51°13.663 2°55.958 13.6755 0.093255 0.450356 -0.164791
2011-02-14 07:22:56 51°13.662 2°55.959 13.677 0.093255 0.450356 -0.199615
2011-02-14 07:23:00 51°13.663 2°55.959 13.6769 0.093255 0.450356 -0.129967
2011-02-14 07:23:05 51°13.663 2°55.959 13.6803 0.093255 0.450356 -0.129967
2011-02-14 07:23:10 51°13.663 2°55.959 13.6811 0.093255 0.450362 -0.129967
2011-02-14 07:23:15 51°13.663 2°55.958 13.6804 0.093255 0.450369 -0.164791
2011-02-14 07:23:20 51°13.662 2°55.958 13.6812 0.093151 0.449848 -0.164791
2011-02-14 07:23:24 51°13.662 2°55.958 13.6799 0.093151 0.449848 -0.164791
2011-02-14 07:23:29 51°13.661 2°55.958 13.6795 0.093151 0.449842 -0.164791
2011-02-14 07:23:34 51°13.662 2°55.958 13.6787 0.093151 0.449842 -0.164791
2011-02-14 07:23:39 51°13.662 2°55.959 13.6802 0.093151 0.449855 -0.164791
2011-02-14 07:23:44 51°13.662 2°55.958 13.6822 0.093151 0.449861 -0.164791
2011-02-14 07:23:48 51°13.662 2°55.959 13.6837 0.093151 0.449855 -0.199615
2011-02-14 07:23:53 51°13.662 2°55.959 13.6828 0.093255 0.450381 -0.164791
2011-02-14 07:23:59 51°13.662 2°55.959 13.6832 0.093151 0.449861 -0.164791
2011-02-14 07:24:04 51°13.662 2°55.958 13.6826 0.093151 0.449861 -0.164791
2011-02-14 07:24:08 51°13.662 2°55.958 13.6815 0.093151 0.449861 -0.164791
2011-02-14 07:24:14 51°13.662 2°55.959 13.6831 0.093151 0.449873 -0.199615
2011-02-14 07:24:19 51°13.662 2°55.959 13.6844 0.093151 0.449867 -0.164791
2011-02-14 07:24:24 51°13.662 2°55.958 13.6844 0.093151 0.449867 -0.199615
2011-02-14 07:24:28 51°13.662 2°55.959 13.6858 0.093151 0.449873 -0.164791
2011-02-14 07:24:33 51°13.663 2°55.959 13.6819 0.093151 0.449873 -0.164791
2011-02-14 07:24:39 51°13.664 2°55.959 13.6836 0.093255 0.450393 -0.164791
2011-02-14 07:24:44 51°13.664 2°55.959 13.6839 0.093151 0.449879 -0.164791
2011-02-14 07:24:48 51°13.664 2°55.959 13.6824 0.093151 0.449879 -0.199615
2011-02-14 07:24:54 51°13.665 2°55.959 13.6805 0.093255 0.450399 -0.164791
2011-02-14 07:24:59 51°13.666 2°55.96 13.6798 0.093151 0.449885 -0.164791
2011-02-14 07:25:04 51°13.666 2°55.961 13.6794 0.093151 0.449885 -0.164791
2011-02-14 07:25:08 51°13.666 2°55.961 13.6807 0.093151 0.449891 -0.199615
2011-02-14 07:25:13 51°13.667 2°55.961 13.6814 0.093151 0.449891 -0.164791
2011-02-14 07:25:18 51°13.667 2°55.962 13.6823 0.093151 0.449891 -0.199615
2011-02-14 07:25:24 51°13.667 2°55.961 13.6833 0.093151 0.449891 -0.164791
2011-02-14 07:25:28 51°13.666 2°55.961 13.6847 0.093151 0.449897 -0.129967
2011-02-14 07:25:33 51°13.665 2°55.96 13.6868 0.093151 0.449897 -0.129967
2011-02-14 07:25:38 51°13.664 2°55.96 13.6865 0.093151 0.449903 -0.164791
2011-02-14 07:25:44 51°13.664 2°55.959 13.6884 0.093151 0.449909 -0.164791
2011-02-14 07:25:48 51°13.664 2°55.959 13.6873 0.093151 0.449903 -0.199615
2011-02-14 07:25:54 51°13.664 2°55.959 13.6877 0.093151 0.449909 -0.164791
2011-02-14 07:25:58 51°13.664 2°55.959 13.6857 0.093151 0.449915 -0.199615
2011-02-14 07:26:04 51°13.664 2°55.958 13.6851 0.093151 0.449915 -0.199615
2011-02-14 07:26:08 51°13.664 2°55.958 13.6816 0.093151 0.449915 -0.199615
2011-02-14 07:26:14 51°13.664 2°55.958 13.6835 0.093151 0.449922 -0.129967
2011-02-14 07:26:19 51°13.663 2°55.958 13.6832 0.093151 0.449922 -0.164791
2011-02-14 07:26:24 51°13.663 2°55.957 13.6818 0.093151 0.449922 -0.199615
2011-02-14 07:26:28 51°13.662 2°55.958 13.6842 0.093151 0.449928 -0.164791
2011-02-14 07:26:34 51°13.662 2°55.958 13.6843 0.093151 0.449928 -0.164791
2011-02-14 07:26:39 51°13.662 2°55.957 13.6814 0.093151 0.449934 -0.164791
2011-02-14 07:26:44 51°13.662 2°55.958 13.6816 0.093151 0.449934 -0.164791
2011-02-14 07:26:48 51°13.662 2°55.958 13.6751 0.093151 0.449934 -0.164791
2011-02-14 07:26:54 51°13.661 2°55.957 13.6751 0.093151 0.44994 -0.129967
2011-02-14 07:26:59 51°13.662 2°55.958 13.6736 0.093151 0.44994 -0.164791
2011-02-14 07:27:04 51°13.662 2°55.958 13.6746 0.093151 0.44994 -0.164791
2011-02-14 07:27:08 51°13.662 2°55.959 13.6752 0.093151 0.44994 -0.164791
2011-02-14 07:27:14 51°13.662 2°55.959 13.6754 0.093151 0.449946 -0.164791
2011-02-14 07:27:19 51°13.662 2°55.959 13.6732 0.093151 0.449952 -0.164791
2011-02-14 07:27:24 51°13.663 2°55.96 13.6759 0.093151 0.449952 -0.164791
2011-02-14 07:27:28 51°13.663 2°55.96 13.6771 0.093151 0.449952 -0.164791
2011-02-14 07:27:33 51°13.663 2°55.96 13.6773 0.093151 0.449952 -0.164791
2011-02-14 07:27:39 51°13.663 2°55.96 13.6777 0.093151 0.449964 -0.199615
2011-02-14 07:27:44 51°13.663 2°55.96 13.6775 0.093151 0.449958 -0.164791
2011-02-14 07:27:48 51°13.663 2°55.96 13.6805 0.093151 0.449958 -0.199615
2011-02-14 07:27:54 51°13.663 2°55.96 13.683 0.093151 0.449964 -0.199615
2011-02-14 07:27:59 51°13.663 2°55.96 13.6842 0.093151 0.44997 -0.199615
2011-02-14 07:28:04 51°13.663 2°55.96 13.6855 0.093151 0.44997 -0.199615
2011-02-14 07:28:08 51°13.663 2°55.96 13.6871 0.093151 0.44997 -0.164791
2011-02-14 07:28:13 51°13.663 2°55.96 13.6867 0.093151 0.449976 -0.164791
2011-02-14 07:28:19 51°13.662 2°55.96 13.6872 0.093151 0.449976 -0.199615
2011-02-14 07:28:24 51°13.663 2°55.96 13.685 0.093151 0.449976 -0.199615
2011-02-14 07:28:28 51°13.663 2°55.96 13.6841 0.093151 0.449989 -0.199615
2011-02-14 07:28:33 51°13.663 2°55.96 13.6838 0.093151 0.449989 -0.199615
2011-02-14 07:28:39 51°13.663 2°55.96 13.6772 0.093151 0.449989 -0.164791
2011-02-14 07:28:44 51°13.664 2°55.961 13.6738 0.093151 0.449989 -0.199615
2011-02-14 07:28:48 51°13.664 2°55.961 13.6728 0.093151 0.449995 -0.164791
2011-02-14 07:28:54 51°13.664 2°55.961 13.6708 0.093151 0.450001 -0.164791
2011-02-14 07:28:58 51°13.664 2°55.961 13.676 0.093151 0.450001 -0.164791
2011-02-14 07:29:04 51°13.664 2°55.961 13.6495 0.093151 0.450001 -0.164791
2011-02-14 07:29:08 51°13.664 2°55.96 13.649 0.093151 0.450013 -0.164791
2011-02-14 07:29:14 51°13.663 2°55.96 13.6502 0.093151 0.450013 -0.164791
2011-02-14 07:29:19 51°13.663 2°55.96 13.6606 0.093151 0.450019 -0.199615
2011-02-14 07:29:24 51°13.663 2°55.96 13.6668 0.093151 0.450025 -0.164791
2011-02-14 07:29:28 51°13.663 2°55.96 13.6706 0.093151 0.450025 -0.164791
2011-02-14 07:29:34 51°13.663 2°55.96 13.6697 0.093151 0.450025 -0.164791
2011-02-14 07:29:39 51°13.663 2°55.96 13.6694 0.093151 0.450031 -0.164791
2011-02-14 07:29:44 51°13.663 2°55.96 13.6704 0.093151 0.450037 -0.164791
2011-02-14 07:29:48 51°13.662 2°55.96 13.6716 0.093151 0.450037 -0.164791
2011-02-14 07:29:53 51°13.662 2°55.96 13.6729 0.093151 0.450043 -0.164791
2011-02-14 07:29:59 51°13.663 2°55.96 13.6735 0.093151 0.450056 -0.164791
2011-02-14 07:30:04 51°13.663 2°55.96 13.6744 0.093151 0.450056 -0.164791
2011-02-14 07:30:08 51°13.663 2°55.96 13.6744 0.093151 0.450056 -0.164791
2011-02-14 07:30:13 51°13.663 2°55.96 13.6725 0.093151 0.450062 -0.164791
2011-02-14 07:30:18 51°13.663 2°55.96 13.6714 0.093151 0.450068 -0.164791
2011-02-14 07:30:24 51°13.663 2°55.96 13.6698 0.093151 0.450074 -0.199615
2011-02-14 07:30:28 51°13.663 2°55.96 13.6715 0.093151 0.450074 -0.164791
2011-02-14 07:30:33 51°13.663 2°55.96 13.6719 0.093151 0.450074 -0.164791
2011-02-14 07:30:39 51°13.663 2°55.96 13.6726 0.093151 0.450086 -0.199615
2011-02-14 07:30:44 51°13.663 2°55.96 13.6729 0.093151 0.450086 -0.199615
2011-02-14 07:30:48 51°13.663 2°55.96 13.6722 0.093151 0.450098 -0.164791
2011-02-14 07:30:54 51°13.663 2°55.96 13.6732 0.093151 0.450098 -0.164791
2011-02-14 07:30:59 51°13.663 2°55.96 13.6734 0.093151 0.450111 -0.129967
2011-02-14 07:31:04 51°13.663 2°55.961 13.6721 0.093151 0.450111 -0.129967
2011-02-14 07:31:08 51°13.663 2°55.961 13.6733 0.093151 0.450111 -0.199615
2011-02-14 07:31:14 51°13.663 2°55.961 13.6722 0.093151 0.450123 -0.129967
2011-02-14 07:31:19 51°13.663 2°55.961 13.6732 0.093151 0.450129 -0.199615
2011-02-14 07:31:24 51°13.663 2°55.96 13.6739 0.093151 0.450135 -0.164791
2011-02-14 07:31:28 51°13.663 2°55.96 13.6732 0.093151 0.450135 -0.164791
2011-02-14 07:31:34 51°13.663 2°55.961 13.6713 0.093151 0.450135 -0.164791
2011-02-14 07:31:39 51°13.663 2°55.96 13.6693 0.093151 0.450147 -0.164791
2011-02-14 07:31:44 51°13.663 2°55.96 13.6706 0.093151 0.450153 -0.164791
2011-02-14 07:31:48 51°13.663 2°55.96 13.6688 0.093151 0.450159 -0.164791
2011-02-14 07:31:53 51°13.663 2°55.96 13.6694 0.093151 0.450165 -0.199615
2011-02-14 07:31:59 51°13.664 2°55.961 13.6719 0.093151 0.450165 -0.129967
2011-02-14 07:32:04 51°13.664 2°55.96 13.6741 0.093151 0.450165 -0.129967
2011-02-14 07:32:08 51°13.664 2°55.96 13.6761 0.093151 0.450178 -0.164791
2011-02-14 07:32:13 51°13.664 2°55.961 13.6768 0.093151 0.450178 -0.199615
2011-02-14 07:32:18 51°13.664 2°55.961 13.6796 0.093151 0.45019 -0.129967
2011-02-14 07:32:24 51°13.664 2°55.961 13.6791 0.093151 0.450196 -0.164791
2011-02-14 07:32:28 51°13.664 2°55.961 13.68 0.093151 0.450202 -0.164791
2011-02-14 07:32:33 51°13.664 2°55.961 13.6806 0.093151 0.450202 -0.164791
2011-02-14 07:32:38 51°13.664 2°55.961 13.6801 0.093151 0.450202 -0.199615
2011-02-14 07:32:44 51°13.664 2°55.961 13.6818 0.093151 0.450208 -0.199615
2011-02-14 07:32:48 51°13.664 2°55.961 13.683 0.093151 0.45022 -0.164791
2011-02-14 07:32:54 51°13.664 2°55.961 13.6846 0.093151 0.450226 -0.199615
2011-02-14 07:32:59 51°13.664 2°55.961 13.6848 0.093151 0.450233 -0.164791
2011-02-14 07:33:04 51°13.664 2°55.96 13.6894 0.093151 0.450233 -0.164791
2011-02-14 07:33:08 51°13.663 2°55.96 13.7249 0.093151 0.450233 -0.164791
2011-02-14 07:33:14 51°13.663 2°55.961 13.7415 0.093151 0.450245 -0.199615
2011-02-14 07:33:19 51°13.663 2°55.961 13.713 0.093151 0.450251 -0.164791
2011-02-14 07:33:24 51°13.663 2°55.961 13.7241 0.093151 0.450257 -0.164791
2011-02-14 07:33:28 51°13.663 2°55.961 13.7468 0.093151 0.450263 -0.164791
2011-02-14 07:33:34 51°13.664 2°55.96 13.7262 0.093151 0.450263 -0.164791
2011-02-14 07:33:40 51°13.663 2°55.96 13.7272 0.093151 0.450269 -0.199615
2011-02-14 07:33:44 51°13.663 2°55.96 13.7251 0.093151 0.450275 -0.164791
2011-02-14 07:33:49 51°13.663 2°55.96 13.7267 0.093151 0.450281 -0.164791
2011-02-14 07:33:54 51°13.663 2°55.96 13.7243 0.093151 0.450287 -0.129967
2011-02-14 07:33:59 51°13.663 2°55.961 13.7254 0.093151 0.4503 -0.199615
2011-02-14 07:34:04 51°13.663 2°55.961 13.7266 0.093151 0.4503 -0.199615
2011-02-14 07:34:08 51°13.663 2°55.961 13.7233 0.093151 0.4503 -0.164791
2011-02-14 07:34:13 51°13.663 2°55.961 13.7234 0.093151 0.450306 -0.164791
2011-02-14 07:34:18 51°13.663 2°55.961 13.7244 0.093151 0.450312 -0.164791
2011-02-14 07:34:24 51°13.663 2°55.961 13.7233 0.093151 0.450324 -0.164791
2011-02-14 07:34:29 51°13.663 2°55.96 13.7245 0.093151 0.450324 -0.164791
2011-02-14 07:34:35 51°13.663 2°55.96 13.7264 0.093151 0.450324 -0.164791
2011-02-14 07:34:40 51°13.663 2°55.96 13.7266 0.093151 0.450324 -0.199615
2011-02-14 07:34:46 51°13.663 2°55.96 13.7277 0.093151 0.450336 -0.164791
2011-02-14 07:34:51 51°13.663 2°55.96 13.7259 0.093151 0.450342 -0.199615
2011-02-14 07:34:56 51°13.663 2°55.96 13.7284 0.093151 0.450342 -0.164791
2011-02-14 07:35:00 51°13.663 2°55.96 13.7306 0.093151 0.450361 -0.164791
2011-02-14 07:35:06 51°13.663 2°55.96 13.7325 0.093151 0.450361 -0.164791
2011-02-14 07:35:11 51°13.663 2°55.96 13.7347 0.093047 0.449834 -0.164791
2011-02-14 07:35:16 51°13.663 2°55.961 13.7286 0.093047 0.449846 -0.199615
2011-02-14 07:35:21 51°13.663 2°55.961 13.7193 0.093151 0.450373 -0.164791
2011-02-14 07:35:26 51°13.663 2°55.961 13.7566 0.093151 0.450379 -0.164791
2011-02-14 07:35:32 51°13.663 2°55.961 13.7428 0.093151 0.450385 -0.164791
2011-02-14 07:35:37 51°13.663 2°55.961 13.7373 0.093151 0.450385 -0.164791
2011-02-14 07:35:42 51°13.663 2°55.961 13.7383 0.093151 0.450391 -0.164791
2011-02-14 07:35:47 51°13.662 2°55.961 13.742 0.093151 0.450391 -0.164791
2011-02-14 07:35:52 51°13.662 2°55.961 13.7417 0.093151 0.450397 -0.164791
2011-02-14 07:35:57 51°13.662 2°55.96 13.74 0.093047 0.449889 -0.164791
2011-02-14 07:36:02 51°13.662 2°55.961 13.7322 0.093151 0.450416 -0.199615
2011-02-14 07:36:07 51°13.662 2°55.961 13.7218 0.093151 0.450416 -0.199615
2011-02-14 07:36:12 51°13.662 2°55.961 13.7335 0.093047 0.449901 -0.164791
2011-02-14 07:36:16 51°13.662 2°55.961 13.7405 0.093047 0.449901 -0.199615
2011-02-14 07:36:22 51°13.662 2°55.961 13.7322 0.093047 0.449907 -0.199615
2011-02-14 07:36:27 51°13.661 2°55.96 13.7382 0.093047 0.449907 -0.164791
2011-02-14 07:36:32 51°13.662 2°55.96 13.7314 0.093047 0.449919 -0.164791
2011-02-14 07:36:37 51°13.661 2°55.96 13.7269 0.093047 0.449919 -0.164791
2011-02-14 07:36:42 51°13.661 2°55.96 13.7275 0.093151 0.45044 -0.164791
2011-02-14 07:36:47 51°13.661 2°55.96 13.7185 0.093047 0.449932 -0.164791
2011-02-14 07:36:52 51°13.661 2°55.959 13.7067 0.093047 0.449932 -0.164791
2011-02-14 07:36:56 51°13.662 2°55.957 13.6941 0.093047 0.449944 -0.199615
2011-02-14 07:37:01 51°13.662 2°55.955 13.5781 0.093047 0.44995 -0.199615
2011-02-14 07:37:07 51°13.663 2°55.951 13.6422 0.093047 0.44995 -0.199615
2011-02-14 07:37:11 51°13.664 2°55.948 13.7009 0.093047 0.449956 -0.164791
2011-02-14 07:37:16 51°13.665 2°55.944 13.7159 0.093047 0.449962 -0.164791
2011-02-14 07:37:21 51°13.666 2°55.938 13.718 0.093047 0.449968 -0.199615
2011-02-14 07:37:27 51°13.668 2°55.932 13.7308 0.093047 0.449974 -0.164791
2011-02-14 07:37:32 51°13.669 2°55.926 13.7284 0.093047 0.449986 -0.164791
2011-02-14 07:37:37 51°13.671 2°55.919 13.7292 0.093047 0.449986 -0.164791
2011-02-14 07:37:42 51°13.672 2°55.911 13.7299 0.093047 0.449986 -0.164791
2011-02-14 07:37:47 51°13.674 2°55.903 13.6908 0.093047 0.449999 -0.164791
2011-02-14 07:37:52 51°13.675 2°55.895 13.7101 0.093047 0.450011 -0.199615
2011-02-14 07:37:57 51°13.677 2°55.886 13.7223 0.093047 0.450011 -0.129967
2011-02-14 07:38:02 51°13.678 2°55.876 13.7508 0.093047 0.450017 -0.164791
2011-02-14 07:38:07 51°13.68 2°55.866 13.7611 0.093047 0.450017 -0.164791
2011-02-14 07:38:12 51°13.681 2°55.856 13.8424 0.093047 0.450017 -0.199615
2011-02-14 07:38:17 51°13.683 2°55.846 13.7964 0.093047 0.450029 -0.199615
2011-02-14 07:38:22 51°13.684 2°55.837 13.7823 0.093047 0.450035 -0.164791
2011-02-14 07:38:27 51°13.685 2°55.827 13.7845 0.093047 0.450041 -0.164791
2011-02-14 07:38:32 51°13.686 2°55.818 13.7645 0.093047 0.450054 -0.164791
2011-02-14 07:38:37 51°13.687 2°55.81 13.7759 0.093047 0.450054 -0.164791
2011-02-14 07:38:42 51°13.688 2°55.801 13.7696 0.093047 0.450054 -0.129967
2011-02-14 07:38:47 51°13.689 2°55.793 13.7599 0.093047 0.45006 -0.164791
2011-02-14 07:38:52 51°13.689 2°55.785 13.7334 0.093047 0.450072 -0.164791
2011-02-14 07:38:57 51°13.689 2°55.778 13.7471 0.093047 0.450078 -0.164791
2011-02-14 07:39:02 51°13.689 2°55.771 13.7649 0.093047 0.450084 -0.164791
2011-02-14 07:39:07 51°13.69 2°55.764 13.7655 0.093047 0.450084 -0.164791
2011-02-14 07:39:12 51°13.69 2°55.757 13.7628 0.093047 0.45009 -0.164791
2011-02-14 07:39:17 51°13.69 2°55.751 13.7667 0.093047 0.450102 -0.199615
2011-02-14 07:39:21 51°13.69 2°55.747 13.7751 0.093047 0.450109 -0.164791
2011-02-14 07:39:27 51°13.69 2°55.742 13.7931 0.093047 0.450109 -0.164791
2011-02-14 07:39:32 51°13.69 2°55.74 13.8005 0.093047 0.450121 -0.164791
2011-02-14 07:39:36 51°13.689 2°55.739 13.8018 0.093047 0.450121 -0.164791
2011-02-14 07:39:41 51°13.69 2°55.737 13.8015 0.093047 0.450127 -0.199615
2011-02-14 07:39:46 51°13.69 2°55.736 13.8007 0.093047 0.450133 -0.164791
2011-02-14 07:39:51 51°13.69 2°55.736 13.7986 0.093047 0.450139 -0.164791
2011-02-14 07:39:56 51°13.691 2°55.737 13.7906 0.093047 0.450145 -0.164791
2011-02-14 07:40:00 51°13.692 2°55.737 13.7836 0.093047 0.450151 -0.199615
2011-02-14 07:40:05 51°13.693 2°55.738 13.7831 0.093047 0.450151 -0.199615
2011-02-14 07:40:10 51°13.694 2°55.738 13.7828 0.093047 0.450164 -0.164791
2011-02-14 07:40:15 51°13.695 2°55.739 13.7861 0.093047 0.45017 -0.164791
2011-02-14 07:40:20 51°13.696 2°55.74 13.7804 0.093047 0.450182 -0.164791
2011-02-14 07:40:24 51°13.697 2°55.741 13.7687 0.093047 0.450182 -0.199615
2011-02-14 07:40:29 51°13.699 2°55.742 13.7679 0.093047 0.450188 -0.129967
2011-02-14 07:40:35 51°13.701 2°55.743 13.7789 0.093047 0.450188 -0.129967
2011-02-14 07:40:39 51°13.703 2°55.743 13.8273 0.093047 0.450194 -0.199615
2011-02-14 07:40:44 51°13.705 2°55.744 13.8445 0.093047 0.450194 -0.199615
2011-02-14 07:40:49 51°13.707 2°55.745 13.8441 0.093047 0.450194 -0.164791
2011-02-14 07:40:54 51°13.71 2°55.745 13.87 0.093047 0.450219 -0.164791
2011-02-14 07:40:59 51°13.714 2°55.745 13.8858 0.093047 0.450219 -0.164791
2011-02-14 07:41:04 51°13.717 2°55.744 13.9058 0.093047 0.450219 -0.164791
2011-02-14 07:41:08 51°13.72 2°55.743 13.9056 0.093047 0.450243 -0.199615
2011-02-14 07:41:13 51°13.725 2°55.74 13.8835 0.093047 0.450249 -0.164791
2011-02-14 07:41:19 51°13.729 2°55.736 13.8586 0.093047 0.450255 -0.164791
2011-02-14 07:41:24 51°13.734 2°55.732 13.7819 0.093047 0.450255 -0.164791
2011-02-14 07:41:30 51°13.739 2°55.726 13.7165 0.093047 0.450243 -0.164791
2011-02-14 07:41:35 51°13.744 2°55.721 13.6722 0.093047 0.450243 -0.164791
2011-02-14 07:41:40 51°13.749 2°55.715 13.6648 0.093047 0.450243 -0.164791
2011-02-14 07:41:46 51°13.755 2°55.707 13.6369 0.093047 0.450237 -0.164791
2011-02-14 07:41:51 51°13.761 2°55.701 13.6393 0.093047 0.450237 -0.129967
2011-02-14 07:41:56 51°13.767 2°55.694 13.6407 0.093047 0.450243 -0.164791
2011-02-14 07:42:01 51°13.773 2°55.687 13.6176 0.093047 0.450255 -0.164791
2011-02-14 07:42:06 51°13.78 2°55.68 13.6125 0.093047 0.450255 -0.164791
2011-02-14 07:42:11 51°13.787 2°55.672 13.5553 0.093047 0.450274 -0.199615
2011-02-14 07:42:16 51°13.794 2°55.664 13.5268 0.093047 0.450292 -0.199615
2011-02-14 07:42:21 51°13.801 2°55.657 13.5221 0.093047 0.450298 -0.199615
2011-02-14 07:42:26 51°13.809 2°55.649 13.5311 0.093047 0.45031 -0.164791
2011-02-14 07:42:30 51°13.815 2°55.642 13.5288 0.093047 0.45031 -0.164791
2011-02-14 07:42:36 51°13.825 2°55.634 13.5315 0.093047 0.45031 -0.164791
2011-02-14 07:42:40 51°13.832 2°55.628 13.5306 0.093047 0.450316 -0.164791
2011-02-14 07:42:45 51°13.841 2°55.62 13.5393 0.093047 0.450329 -0.164791
2011-02-14 07:42:50 51°13.849 2°55.613 13.5511 0.093047 0.450341 -0.164791
2011-02-14 07:42:55 51°13.858 2°55.606 13.5729 0.093047 0.450353 -0.199615
2011-02-14 07:43:00 51°13.867 2°55.599 13.582 0.092943 0.449838 -0.164791
2011-02-14 07:43:04 51°13.875 2°55.594 13.6078 0.092943 0.449838 -0.164791
2011-02-14 07:43:09 51°13.884 2°55.587 13.6003 0.092943 0.449844 -0.164791
2011-02-14 07:43:14 51°13.894 2°55.58 13.6161 0.093047 0.450371 -0.199615
2011-02-14 07:43:19 51°13.903 2°55.573 13.5909 0.093047 0.450377 -0.199615
2011-02-14 07:43:24 51°13.913 2°55.566 13.5953 0.092943 0.44985 -0.164791
2011-02-14 07:43:29 51°13.922 2°55.559 13.597 0.092943 0.44985 -0.164791
2011-02-14 07:43:34 51°13.932 2°55.553 13.6136 0.092943 0.44985 -0.164791
2011-02-14 07:43:38 51°13.94 2°55.547 13.6249 0.092943 0.449856 -0.199615
2011-02-14 07:43:44 51°13.952 2°55.539 13.6386 0.092943 0.449868 -0.164791
2011-02-14 07:43:48 51°13.96 2°55.533 13.6532 0.092943 0.449875 -0.164791
2011-02-14 07:43:54 51°13.971 2°55.525 13.6567 0.092943 0.449881 -0.199615
2011-02-14 07:43:58 51°13.979 2°55.52 13.6574 0.092943 0.449881 -0.164791
2011-02-14 07:44:04 51°13.991 2°55.512 13.5944 0.092943 0.449881 -0.164791
2011-02-14 07:44:08 51°14 2°55.506 13.608 0.092943 0.449881 -0.199615
2011-02-14 07:44:14 51°14.012 2°55.497 13.6448 0.092943 0.449887 -0.129967
2011-02-14 07:44:18 51°14.021 2°55.492 13.6498 0.092943 0.449887 -0.199615
2011-02-14 07:44:24 51°14.033 2°55.483 13.6049 0.092943 0.449893 -0.164791
2011-02-14 07:44:28 51°14.042 2°55.477 13.6528 0.092943 0.449899 -0.164791
2011-02-14 07:44:33 51°14.053 2°55.47 13.6323 0.092943 0.449899 -0.164791
2011-02-14 07:44:39 51°14.066 2°55.461 13.6432 0.092943 0.449911 -0.199615
2011-02-14 07:44:44 51°14.078 2°55.453 13.6461 0.092943 0.449911 -0.199615
2011-02-14 07:44:48 51°14.087 2°55.447 13.6181 0.092943 0.449923 -0.164791
2011-02-14 07:44:54 51°14.101 2°55.437 13.6564 0.092943 0.449923 -0.164791
2011-02-14 07:44:58 51°14.11 2°55.431 13.6963 0.092943 0.449923 -0.164791
2011-02-14 07:45:04 51°14.124 2°55.421 13.673 0.092943 0.449923 -0.164791
2011-02-14 07:45:08 51°14.133 2°55.414 13.677 0.092943 0.449936 -0.164791
2011-02-14 07:45:13 51°14.145 2°55.405 13.674 0.092943 0.449936 -0.164791
2011-02-14 07:45:19 51°14.159 2°55.394 13.6742 0.092943 0.449942 -0.199615
2011-02-14 07:45:24 51°14.171 2°55.384 13.6559 0.092943 0.449942 -0.199615
2011-02-14 07:45:28 51°14.181 2°55.375 13.5184 0.092943 0.449954 -0.164791
2011-02-14 07:45:34 51°14.195 2°55.363 13.6143 0.092943 0.449954 -0.164791
2011-02-14 07:45:39 51°14.207 2°55.352 13.5492 0.092943 0.449966 -0.129967
2011-02-14 07:45:44 51°14.218 2°55.341 13.5004 0.092943 0.44996 -0.199615
2011-02-14 07:45:48 51°14.228 2°55.333 13.5624 0.092943 0.449966 -0.164791
2011-02-14 07:45:54 51°14.243 2°55.32 13.5699 0.092943 0.449972 -0.164791
2011-02-14 07:45:58 51°14.253 2°55.312 13.6257 0.092943 0.449972 -0.164791
2011-02-14 07:46:04 51°14.268 2°55.299 13.6658 0.092943 0.449972 -0.164791
2011-02-14 07:46:08 51°14.278 2°55.291 13.6122 0.092943 0.449978 -0.199615
2011-02-14 07:46:14 51°14.292 2°55.278 13.6304 0.092943 0.449991 -0.199615
2011-02-14 07:46:19 51°14.305 2°55.267 13.7024 0.092943 0.450003 -0.129967
2011-02-14 07:46:24 51°14.317 2°55.256 13.6584 0.092943 0.450009 -0.164791
2011-02-14 07:46:29 51°14.33 2°55.243 13.6919 0.092943 0.450015 -0.164791
2011-02-14 07:46:34 51°14.342 2°55.232 13.7306 0.092943 0.450015 -0.164791
2011-02-14 07:46:39 51°14.354 2°55.219 13.6982 0.092943 0.450021 -0.164791
2011-02-14 07:46:44 51°14.367 2°55.207 13.6972 0.092943 0.450021 -0.199615
2011-02-14 07:46:48 51°14.376 2°55.197 13.6355 0.092943 0.450027 -0.164791
2011-02-14 07:46:53 51°14.389 2°55.185 13.691 0.092943 0.450033 -0.129967
2011-02-14 07:46:59 51°14.403 2°55.17 13.647 0.092943 0.450046 -0.164791
2011-02-14 07:47:04 51°14.415 2°55.157 13.6402 0.092943 0.450046 -0.164791
2011-02-14 07:47:08 51°14.425 2°55.146 13.5867 0.092943 0.450052 -0.164791
2011-02-14 07:47:14 51°14.44 2°55.131 13.6395 0.092943 0.450058 -0.164791
2011-02-14 07:47:19 51°14.452 2°55.118 13.6541 0.092943 0.450064 -0.199615
2011-02-14 07:47:24 51°14.465 2°55.105 13.6003 0.092943 0.45007 -0.164791
2011-02-14 07:47:28 51°14.474 2°55.095 13.5992 0.092943 0.450076 -0.164791
2011-02-14 07:47:34 51°14.49 2°55.08 13.6291 0.092943 0.450076 -0.164791
2011-02-14 07:47:39 51°14.502 2°55.068 13.6816 0.092943 0.45007 -0.164791
2011-02-14 07:47:44 51°14.515 2°55.055 13.687 0.092943 0.450082 -0.164791
2011-02-14 07:47:48 51°14.525 2°55.045 13.6313 0.092943 0.450095 -0.164791
2011-02-14 07:47:53 51°14.538 2°55.032 13.4297 0.092943 0.450107 -0.164791
2011-02-14 07:47:59 51°14.554 2°55.017 13.6701 0.092943 0.450113 -0.164791
2011-02-14 07:48:04 51°14.568 2°55.006 13.6181 0.092943 0.450113 -0.164791
2011-02-14 07:48:08 51°14.579 2°54.997 13.6261 0.092943 0.450113 -0.164791
2011-02-14 07:48:13 51°14.593 2°54.987 13.665 0.092943 0.450119 -0.164791
2011-02-14 07:48:19 51°14.609 2°54.973 13.6328 0.092943 0.450125 -0.164791
2011-02-14 07:48:24 51°14.623 2°54.962 13.5928 0.092943 0.450137 -0.164791
2011-02-14 07:48:28 51°14.634 2°54.953 13.477 0.092943 0.45015 -0.164791
2011-02-14 07:48:33 51°14.648 2°54.942 13.5655 0.092943 0.45015 -0.164791
2011-02-14 07:48:38 51°14.661 2°54.931 13.6457 0.092943 0.450156 -0.199615
2011-02-14 07:48:44 51°14.678 2°54.916 13.6143 0.092943 0.450162 -0.164791
2011-02-14 07:48:48 51°14.689 2°54.907 13.6025 0.092943 0.450346 -0.199615
2011-02-14 07:48:54 51°14.705 2°54.893 13.6542 0.092943 0.450523 -0.234439
2011-02-14 07:48:59 51°14.718 2°54.88 13.5521 0.092943 0.450536 -0.199615
2011-02-14 07:49:04 51°14.732 2°54.866 13.5705 0.092943 0.450536 -0.199615
2011-02-14 07:49:08 51°14.742 2°54.855 13.5537 0.092943 0.450425 -0.199615
2011-02-14 07:49:13 51°14.755 2°54.841 13.5831 0.092943 0.450223 -0.164791
2011-02-14 07:49:19 51°14.771 2°54.823 13.5174 0.092943 0.449954 -0.164791
2011-02-14 07:49:24 51°14.785 2°54.809 13.5779 0.092943 0.44985 -0.164791
2011-02-14 07:49:28 51°14.796 2°54.797 11.2051 0.092943 0.44993 -0.164791
2011-02-14 07:49:33 51°14.81 2°54.782 8.7871 0.092943 0.44993 -0.164791
2011-02-14 07:49:39 51°14.826 2°54.764 8.2608 0.094296 0.454023 0.218274
2011-02-14 07:49:44 51°14.841 2°54.749 7.6792 0.325374 1.678517 0.322746
2011-02-14 07:49:48 51°14.852 2°54.737 7.5193 0.461226 2.446516 0.113802
2011-02-14 07:49:53 51°14.866 2°54.721 7.3454 0.436076 2.551378 0.044153
2011-02-14 07:49:58 51°14.88 2°54.706 7.2358 0.463013 2.946241 0.113802
2011-02-14 07:50:04 51°14.898 2°54.687 7.1479 0.463013 2.946241 0.113802
2011-02-14 07:50:08 51°14.909 2°54.675 7.1006 2.241849 17.567481 0.18345
2011-02-14 07:50:14 51°14.926 2°54.655 7.0715 2.153628 17.196736 0.253098
2011-02-14 07:50:18 51°14.938 2°54.642 7.0093 2.455104 20.90605 0.218274
2011-02-14 07:50:24 51°14.955 2°54.623 6.9718 2.861459 25.645312 0.18345
2011-02-14 07:50:28 51°14.967 2°54.609 6.9739 3.392185 31.477896 0.287922
2011-02-14 07:50:33 51°14.982 2°54.592 6.9834 3.392185 31.477896 0.287922
2011-02-14 07:50:39 51°14.999 2°54.573 6.916 3.476948 32.918187 0.253098
2011-02-14 07:50:44 51°15.014 2°54.555 6.8784 3.488548 33.300997 0.253098
2011-02-14 07:50:48 51°15.026 2°54.542 6.869 3.49182 33.639912 0.218274
2011-02-14 07:50:53 51°15.04 2°54.524 6.8883 3.465781 33.467487 0.148626
2011-02-14 07:50:59 51°15.058 2°54.504 6.8884 3.449758 33.42706 0.18345
2011-02-14 07:51:04 51°15.073 2°54.487 6.8334 3.449758 33.42706 0.18345
2011-02-14 07:51:08 51°15.085 2°54.474 6.8401 3.444383 33.455092 0.18345
2011-02-14 07:51:13 51°15.1 2°54.457 6.804 3.430047 33.35557 0.148626
2011-02-14 07:51:18 51°15.116 2°54.441 6.7976 3.423828 33.362282 0.148626
2011-02-14 07:51:24 51°15.133 2°54.421 6.8114 3.41919 33.356845 0.148626
2011-02-14 07:51:28 51°15.145 2°54.407 6.7941 3.418769 33.405309 0.18345
2011-02-14 07:51:34 51°15.163 2°54.387 6.7954 3.418769 33.405309 0.18345
2011-02-14 07:51:39 51°15.178 2°54.37 6.788 3.410125 33.342545 0.148626
2011-02-14 07:51:44 51°15.193 2°54.353 6.7686 3.407596 33.345299 0.18345
2011-02-14 07:51:48 51°15.204 2°54.338 6.7539 3.404012 33.333331 0.18345
2011-02-14 07:51:53 51°15.219 2°54.321 6.7566 3.401799 33.346904 0.18345
2011-02-14 07:51:59 51°15.236 2°54.3 6.7587 3.401588 33.351983 0.18345
2011-02-14 07:52:04 51°15.251 2°54.282 6.7173 3.401588 33.351983 0.18345
2011-02-14 07:52:08 51°15.263 2°54.268 6.7316 3.399269 33.349687 0.113802
2011-02-14 07:52:12 51°15.274 2°54.254 6.7125 3.398215 33.351328 0.18345
2011-02-14 07:52:18 51°15.292 2°54.234 6.7042 3.398215 33.359535 0.18345
2011-02-14 07:52:24 51°15.31 2°54.213 6.7103 3.398321 33.379574 0.18345
2011-02-14 07:52:28 51°15.321 2°54.199 6.7031 3.398638 33.408523 0.18345
2011-02-14 07:52:34 51°15.339 2°54.178 6.7209 3.398638 33.408523 0.18345
2011-02-14 07:52:38 51°15.35 2°54.164 6.6943 3.398216 33.411332 0.078977
2011-02-14 07:52:44 51°15.367 2°54.142 6.6862 3.399481 33.447398 0.148626
2011-02-14 07:52:48 51°15.379 2°54.127 6.6874 3.40159 33.486121 0.18345
2011-02-14 07:52:53 51°15.393 2°54.108 6.6787 3.401379 33.500352 0.113802
2011-02-14 07:52:59 51°15.409 2°54.086 6.6834 3.401379 33.511937 0.218274
2011-02-14 07:53:04 51°15.423 2°54.067 6.688 3.401379 33.511937 0.218274
2011-02-14 07:53:08 51°15.434 2°54.052 6.6793 3.401168 33.517911 0.148626
2011-02-14 07:53:13 51°15.448 2°54.033 6.6876 3.401168 33.517911 0.148626
2011-02-14 07:53:19 51°15.465 2°54.011 6.6668 3.400642 33.534517 0.18345
2011-02-14 07:53:24 51°15.478 2°53.992 6.6783 3.401801 33.556339 0.148626
2011-02-14 07:53:28 51°15.489 2°53.977 6.6811 3.401907 33.564135 0.18345
2011-02-14 07:53:33 51°15.503 2°53.958 6.6731 3.401907 33.564135 0.18345
2011-02-14 07:53:39 51°15.52 2°53.936 6.6795 3.401907 33.566626 0.148626
2011-02-14 07:53:44 51°15.534 2°53.918 6.6678 3.40138 33.560022 0.148626
2011-02-14 07:53:48 51°15.545 2°53.903 6.6565 3.400853 33.555909 0.18345
2011-02-14 07:53:54 51°15.562 2°53.88 6.6535 3.400536 33.561579 0.18345
2011-02-14 07:53:58 51°15.573 2°53.865 6.6709 3.400431 33.565409 0.113802
2011-02-14 07:54:04 51°15.588 2°53.842 6.6645 3.400431 33.565409 0.113802
2011-02-14 07:54:08 51°15.599 2°53.826 6.6692 3.401064 33.574002 0.148626
2011-02-14 07:54:13 51°15.612 2°53.807 6.6384 3.400537 33.573213 0.218274
2011-02-14 07:54:19 51°15.628 2°53.783 6.6551 3.400431 33.582035 0.18345
2011-02-14 07:54:24 51°15.641 2°53.763 6.6431 3.401064 33.593129 0.148626
2011-02-14 07:54:28 51°15.651 2°53.747 6.6486 3.400853 33.594978 0.113802
2011-02-14 07:54:33 51°15.664 2°53.727 6.641 3.400853 33.594978 0.113802
2011-02-14 07:54:39 51°15.68 2°53.704 6.6493 3.40001 33.594052 0.113802
2011-02-14 07:54:44 51°15.693 2°53.684 6.6485 3.399588 33.592757 0.113802
2011-02-14 07:54:48 51°15.704 2°53.67 6.6518 3.400748 33.604645 0.218274
2011-02-14 07:54:53 51°15.718 2°53.65 6.6352 3.402013 33.626023 0.218274
2011-02-14 07:54:58 51°15.731 2°53.631 6.6414 3.400115 33.609368 0.078977
2011-02-14 07:55:04 51°15.748 2°53.609 6.6383 3.400115 33.609368 0.078977
2011-02-14 07:55:08 51°15.759 2°53.595 6.645 3.401802 33.635382 0.113802
2011-02-14 07:55:14 51°15.776 2°53.574 6.6393 3.40138 33.633256 0.18345
2011-02-14 07:55:19 51°15.792 2°53.558 6.6338 3.403173 33.653764 0.148626
2011-02-14 07:55:24 51°15.807 2°53.542 6.6444 3.401486 33.638584 0.18345
2011-02-14 07:55:28 51°15.82 2°53.531 6.6301 3.40117 33.634278 0.113802
2011-02-14 07:55:33 51°15.836 2°53.517 6.6325 3.40117 33.634278 0.113802
2011-02-14 07:55:39 51°15.855 2°53.501 6.6218 3.403805 33.669059 0.18345
2011-02-14 07:55:44 51°15.871 2°53.488 6.6139 3.403067 33.665131 0.148626
2011-02-14 07:55:48 51°15.885 2°53.478 6.6136 3.400537 33.637346 0.078977
2011-02-14 07:55:54 51°15.906 2°53.462 6.6116 3.401802 33.653743 0.148626
2011-02-14 07:55:59 51°15.922 2°53.451 6.6087 3.404438 33.682689 0.078977
2011-02-14 07:56:04 51°15.938 2°53.438 6.6135 3.404438 33.682689 0.078977
2011-02-14 07:56:08 51°15.952 2°53.427 6.605 3.40507 33.694654 0.113802
2011-02-14 07:56:14 51°15.972 2°53.412 6.6021 3.40507 33.694654 0.113802
2011-02-14 07:56:18 51°15.985 2°53.402 6.6029 3.40507 33.694654 0.113802
2011-02-14 07:56:24 51°16.005 2°53.386 6.605 3.406125 33.722137 0.113802
2011-02-14 07:56:28 51°16.018 2°53.376 6.5897 3.406546 33.73096 0.113802
2011-02-14 07:56:32 51°16.032 2°53.366 6.5869 3.406546 33.73096 0.113802
2011-02-14 07:56:39 51°16.055 2°53.348 6.5806 3.406757 33.739981 0.113802
2011-02-14 07:56:44 51°16.072 2°53.336 6.5868 3.406757 33.740819 0.113802
2011-02-14 07:56:48 51°16.085 2°53.325 6.5879 3.406757 33.745848 0.113802
2011-02-14 07:56:54 51°16.105 2°53.311 6.5789 3.407179 33.754679 0.113802
2011-02-14 07:56:59 51°16.122 2°53.298 6.5712 3.407706 33.759638 0.148626
2011-02-14 07:57:04 51°16.139 2°53.286 6.5718 3.407706 33.759638 0.148626
2011-02-14 07:57:08 51°16.152 2°53.276 6.5647 3.406968 33.757393 0.113802
2011-02-14 07:57:13 51°16.169 2°53.262 6.5642 3.406863 33.762945 0.148626
2011-02-14 07:57:19 51°16.189 2°53.247 6.567 3.406968 33.764945 0.078977
2011-02-14 07:57:24 51°16.205 2°53.235 6.5667 3.40739 33.775462 0.148626
2011-02-14 07:57:28 51°16.218 2°53.224 6.5646 3.406863 33.773019 0.148626
2011-02-14 07:57:33 51°16.235 2°53.211 6.5592 3.406863 33.773019 0.148626
2011-02-14 07:57:39 51°16.255 2°53.196 6.565 3.406336 33.769737 0.148626
2011-02-14 07:57:44 51°16.272 2°53.182 6.5503 3.405809 33.773174 0.148626
2011-02-14 07:57:48 51°16.285 2°53.172 6.553 3.405387 33.771051 0.218274
2011-02-14 07:57:53 51°16.301 2°53.159 6.5534 3.407074 33.793827 0.148626
2011-02-14 07:57:58 51°16.318 2°53.146 6.5414 3.406652 33.79591 0.113802
2011-02-14 07:58:04 51°16.338 2°53.131 6.5446 3.406652 33.79591 0.113802
2011-02-14 07:58:08 51°16.352 2°53.122 6.5359 3.406231 33.791265 0.113802
2011-02-14 07:58:14 51°16.372 2°53.108 6.534 3.405914 33.788623 0.148626
2011-02-14 07:58:19 51°16.389 2°53.097 6.5309 3.405598 33.790184 0.148626
2011-02-14 07:58:24 51°16.407 2°53.086 6.5289 3.405282 33.792588 0.113802
2011-02-14 07:58:28 51°16.421 2°53.078 6.5285 3.40465 33.786461 0.113802
2011-02-14 07:58:33 51°16.438 2°53.067 6.5246 3.40465 33.786461 0.113802
2011-02-14 07:58:39 51°16.459 2°53.055 6.5191 3.404755 33.793511 0.148626
2011-02-14 07:58:44 51°16.476 2°53.045 6.5198 3.405282 33.801003 0.18345
2011-02-14 07:58:48 51°16.49 2°53.036 6.5222 3.404334 33.796438 0.148626
2011-02-14 07:58:52 51°16.505 2°53.028 6.5171 3.404228 33.800327 0.113802
2011-02-14 07:58:59 51°16.529 2°53.014 6.5234 3.403912 33.798525 0.148626
2011-02-14 07:59:04 51°16.546 2°53.003 6.5168 3.403912 33.798525 0.148626
2011-02-14 07:59:08 51°16.56 2°52.995 6.5199 3.406758 33.835805 0.148626
2011-02-14 07:59:13 51°16.577 2°52.984 6.5223 3.402858 33.796165 0.113802
2011-02-14 07:59:18 51°16.595 2°52.973 6.5137 3.402753 33.798371 0.148626
2011-02-14 07:59:24 51°16.615 2°52.96 6.5112 3.403385 33.807032 0.18345
2011-02-14 07:59:28 51°16.629 2°52.951 6.5171 3.402436 33.799095 0.18345
2011-02-14 07:59:34 51°16.65 2°52.938 6.51 3.402436 33.799095 0.18345
2011-02-14 07:59:38 51°16.664 2°52.928 6.5152 3.40212 33.79645 0.18345
2011-02-14 07:59:44 51°16.684 2°52.915 6.5104 3.402647 33.803106 0.218274
2011-02-14 07:59:48 51°16.698 2°52.906 6.5083 3.406231 33.846016 0.148626
2011-02-14 07:59:54 51°16.719 2°52.893 6.5034 3.406231 33.848548 0.18345
2011-02-14 07:59:59 51°16.736 2°52.881 6.5073 3.405493 33.842094 0.218274
2011-02-14 08:00:04 51°16.753 2°52.869 6.5072 3.405493 33.842094 0.218274
2011-02-14 08:00:08 51°16.766 2°52.861 6.508 3.40581 33.849803 0.218274
2011-02-14 08:00:13 51°16.783 2°52.849 6.5048 3.405704 33.847796 0.18345
2011-02-14 08:00:19 51°16.804 2°52.836 6.497 3.406126 33.853293 0.218274
2011-02-14 08:00:24 51°16.821 2°52.824 6.5023 3.405072 33.844192 0.18345
2011-02-14 08:00:28 51°16.834 2°52.815 6.5049 3.405177 33.848732 0.18345
2011-02-14 08:00:33 51°16.851 2°52.803 6.4958 3.405177 33.848732 0.18345
2011-02-14 08:00:39 51°16.872 2°52.789 6.5023 3.405599 33.85423 0.148626
2011-02-14 08:00:44 51°16.889 2°52.778 6.4999 3.405494 33.8556 0.18345
2011-02-14 08:00:48 51°16.903 2°52.77 6.4974 3.404756 33.847454 0.148626
2011-02-14 08:00:53 51°16.92 2°52.759 6.5008 3.404334 33.844489 0.18345
2011-02-14 08:00:58 51°16.938 2°52.749 6.5052 3.40328 33.837917 0.218274
2011-02-14 08:01:04 51°16.959 2°52.736 6.4976 3.40328 33.837917 0.218274
2011-02-14 08:01:08 51°16.973 2°52.727 6.4962 3.404334 33.849555 0.218274
2011-02-14 08:01:14 51°16.994 2°52.714 6.4992 3.40465 33.85558 0.218274
2011-02-14 08:01:19 51°17.011 2°52.703 6.5005 3.403385 33.84077 0.148626
2011-02-14 08:01:24 51°17.028 2°52.692 6.5008 3.403069 33.83559 0.18345
2011-02-14 08:01:28 51°17.042 2°52.684 6.4948 3.405388 33.862883 0.18345
2011-02-14 08:01:33 51°17.061 2°52.677 6.4935 3.405388 33.862883 0.18345
2011-02-14 08:01:39 51°17.083 2°52.67 6.4993 3.403807 33.846269 0.18345
2011-02-14 08:01:44 51°17.101 2°52.666 6.5045 3.404861 33.858753 0.113802
2011-02-14 08:01:48 51°17.116 2°52.663 6.4985 3.403702 33.846794 0.18345
2011-02-14 08:01:54 51°17.139 2°52.661 6.4932 3.404756 33.858434 0.218274
2011-02-14 08:01:59 51°17.158 2°52.659 6.4943 3.404861 33.859598 0.148626
2011-02-14 08:02:03 51°17.173 2°52.658 6.4982 3.404861 33.859598 0.148626
2011-02-14 08:02:08 51°17.192 2°52.657 6.491 3.402858 33.839172 0.148626
2011-02-14 08:02:13 51°17.211 2°52.656 6.489 3.405283 33.865944 0.18345
2011-02-14 08:02:18 51°17.23 2°52.655 6.4987 3.402964 33.841181 0.148626
2011-02-14 08:02:24 51°17.253 2°52.655 6.4965 3.402964 33.839492 0.18345
2011-02-14 08:02:28 51°17.269 2°52.654 6.4869 3.402331 33.834197 0.218274
2011-02-14 08:02:34 51°17.291 2°52.653 6.4917 3.402331 33.834197 0.218274
2011-02-14 08:02:39 51°17.31 2°52.653 6.4861 3.40718 33.889435 0.18345
2011-02-14 08:02:44 51°17.33 2°52.652 6.4843 3.407286 33.89229 0.218274
2011-02-14 08:02:48 51°17.345 2°52.651 6.4864 3.406126 33.880329 0.18345
2011-02-14 08:02:54 51°17.368 2°52.649 6.4817 3.406864 33.890171 0.18345
2011-02-14 08:02:59 51°17.387 2°52.647 6.4847 3.40718 33.89451 0.148626
2011-02-14 08:03:04 51°17.406 2°52.645 6.4885 3.40718 33.89451 0.148626
2011-02-14 08:03:08 51°17.421 2°52.644 6.4869 3.40718 33.89451 0.253098
2011-02-14 08:03:13 51°17.441 2°52.642 6.4893 3.407918 33.906893 0.18345
2011-02-14 08:03:19 51°17.464 2°52.641 6.4913 3.406864 33.895247 0.218274
2011-02-14 08:03:24 51°17.483 2°52.641 6.4937 3.407918 33.908586 0.18345
2011-02-14 08:03:28 51°17.499 2°52.64 6.4884 3.406653 33.898841 0.218274
2011-02-14 08:03:33 51°17.518 2°52.64 6.4916 3.406653 33.898841 0.218274
2011-02-14 08:03:39 51°17.541 2°52.638 6.4871 3.406548 33.898523 0.253098
2011-02-14 08:03:44 51°17.56 2°52.638 6.487 3.407497 33.909006 0.218274
2011-02-14 08:03:48 51°17.576 2°52.637 6.4861 3.407286 33.90583 0.218274
2011-02-14 08:03:53 51°17.595 2°52.636 6.4842 3.410027 33.93188 0.218274
2011-02-14 08:03:58 51°17.613 2°52.634 6.4908 3.410343 33.936222 0.18345
2011-02-14 08:04:04 51°17.636 2°52.633 6.4908 3.410343 33.936222 0.18345
2011-02-14 08:04:08 51°17.652 2°52.631 6.4884 3.410343 33.934527 0.218274
2011-02-14 08:04:14 51°17.675 2°52.63 6.4897 3.410659 33.940564 0.18345
2011-02-14 08:04:19 51°17.694 2°52.629 6.4895 3.410554 33.939399 0.218274
2011-02-14 08:04:24 51°17.713 2°52.627 6.488 3.410554 33.941093 0.218274
2011-02-14 08:04:28 51°17.729 2°52.626 6.4826 3.410027 33.936964 0.18345
2011-02-14 08:04:33 51°17.748 2°52.624 6.4908 3.410027 33.936964 0.18345
2011-02-14 08:04:39 51°17.771 2°52.623 6.5009 3.410554 33.943636 0.218274
2011-02-14 08:04:44 51°17.79 2°52.62 6.4899 3.409394 33.929127 0.253098
2011-02-14 08:04:48 51°17.805 2°52.62 6.4905 3.41087 33.946283 0.18345
2011-02-14 08:04:54 51°17.828 2°52.617 6.4885 3.408762 33.92129 0.18345
2011-02-14 08:04:59 51°17.847 2°52.616 6.4888 3.410238 33.939293 0.218274
2011-02-14 08:05:04 51°17.866 2°52.614 6.491 3.410238 33.939293 0.218274
2011-02-14 08:05:08 51°17.882 2°52.613 6.4875 3.408656 33.922667 0.253098
2011-02-14 08:05:14 51°17.904 2°52.611 6.4912 3.410027 33.936964 0.218274
2011-02-14 08:05:18 51°17.92 2°52.61 6.4895 3.40971 33.931774 0.35757
2011-02-14 08:05:24 51°17.943 2°52.607 6.4918 3.409605 33.930609 0.287922
2011-02-14 08:05:28 51°17.958 2°52.607 6.4927 3.408656 33.920126 0.287922
2011-02-14 08:05:32 51°17.973 2°52.605 6.4931 3.408656 33.920126 0.287922
2011-02-14 08:05:39 51°18 2°52.602 6.4832 3.41203 33.958251 0.253098
2011-02-14 08:05:44 51°18.02 2°52.601 6.4901 3.411186 33.948931 0.287922
2011-02-14 08:05:48 51°18.035 2°52.599 6.4844 3.408129 33.916842 0.218274
2011-02-14 08:05:54 51°18.058 2°52.597 6.4896 3.408551 33.921502 0.287922
2011-02-14 08:05:59 51°18.077 2°52.595 6.4852 3.411713 33.954756 0.35757
2011-02-14 08:06:04 51°18.096 2°52.592 6.4828 3.411713 33.954756 0.35757
2011-02-14 08:06:08 51°18.111 2°52.591 6.4878 3.411397 33.949565 0.287922
2011-02-14 08:06:13 51°18.13 2°52.589 6.4879 3.410343 33.941306 0.253098
2011-02-14 08:06:19 51°18.153 2°52.587 6.4838 3.410448 33.943319 0.253098
2011-02-14 08:06:24 51°18.172 2°52.586 6.4879 3.413295 33.975625 0.35757
2011-02-14 08:06:28 51°18.188 2°52.584 6.4825 3.410976 33.949144 0.35757
2011-02-14 08:06:33 51°18.207 2°52.582 6.4838 3.410976 33.949144 0.35757
2011-02-14 08:06:39 51°18.23 2°52.581 6.4857 3.411503 33.956665 0.35757
2011-02-14 08:06:44 51°18.249 2°52.579 6.4802 3.410132 33.943214 0.35757
2011-02-14 08:06:48 51°18.264 2°52.578 6.4867 3.410765 33.950205 0.322746
2011-02-14 08:06:53 51°18.283 2°52.575 6.4834 3.409078 33.930715 0.636162
2011-02-14 08:06:58 51°18.303 2°52.574 6.4843 3.408235 33.922242 0.462042
2011-02-14 08:07:04 51°18.325 2°52.572 6.48 3.408235 33.922242 0.462042
2011-02-14 08:07:08 51°18.341 2°52.571 6.4849 3.412768 33.974041 0.392394
2011-02-14 08:07:14 51°18.364 2°52.569 6.4796 3.412873 33.974358 0.427218
2011-02-14 08:07:19 51°18.383 2°52.567 6.4831 3.413295 33.980717 0.53169
2011-02-14 08:07:24 51°18.402 2°52.565 6.4834 3.412451 33.973939 0.462042
2011-02-14 08:07:28 51°18.417 2°52.563 6.4848 3.412662 33.977119 0.427218
2011-02-14 08:07:33 51°18.436 2°52.561 6.4832 3.412662 33.977119 0.427218
2011-02-14 08:07:39 51°18.459 2°52.559 6.4774 3.411714 33.967478 0.496866
2011-02-14 08:07:44 51°18.478 2°52.558 6.4802 3.412135 33.971291 0.566514
2011-02-14 08:07:48 51°18.494 2°52.557 6.48 3.411819 33.968643 0.496866
2011-02-14 08:07:52 51°18.509 2°52.556 6.4804 3.411714 33.967478 0.636162
2011-02-14 08:07:58 51°18.532 2°52.553 6.4778 3.410976 33.95932 0.53169
2011-02-14 08:08:04 51°18.555 2°52.551 6.4813 3.410976 33.95932 0.53169
2011-02-14 08:08:08 51°18.57 2°52.55 6.4789 3.412241 33.971608 0.427218
2011-02-14 08:08:13 51°18.589 2°52.548 6.4793 3.411924 33.967264 0.496866
2011-02-14 08:08:18 51°18.609 2°52.546 6.4746 3.413716 33.990472 0.462042
2011-02-14 08:08:24 51°18.631 2°52.544 6.4839 3.410765 33.960382 0.35757
2011-02-14 08:08:28 51°18.647 2°52.543 6.4749 3.412662 33.982212 0.322746
2011-02-14 08:08:34 51°18.67 2°52.54 6.4749 3.412662 33.982212 0.322746
2011-02-14 08:08:38 51°18.685 2°52.539 6.4711 3.411924 33.973203 0.496866
2011-02-14 08:08:43 51°18.704 2°52.538 6.4723 3.412241 33.9767 0.392394
2011-02-14 08:08:48 51°18.723 2°52.536 6.4758 3.412662 33.982212 0.322746
2011-02-14 08:08:53 51°18.742 2°52.535 6.4754 3.410343 33.958265 0.392394
2011-02-14 08:08:58 51°18.761 2°52.533 6.473 3.411081 33.966424 0.35757
2011-02-14 08:09:04 51°18.784 2°52.531 6.4773 3.411081 33.966424 0.35757
2011-02-14 08:09:08 51°18.799 2°52.53 6.4775 3.410554 33.9589 0.601338
2011-02-14 08:09:14 51°18.822 2°52.527 6.4778 3.410976 33.965259 0.322746
2011-02-14 08:09:19 51°18.842 2°52.525 6.4737 3.410659 33.96261 0.322746
2011-02-14 08:09:24 51°18.861 2°52.524 6.4704 3.411397 33.972468 0.427218
2011-02-14 08:09:28 51°18.876 2°52.522 6.4657 3.410449 33.962825 0.427218
2011-02-14 08:09:34 51°18.899 2°52.521 6.4697 3.410449 33.962825 0.427218
2011-02-14 08:09:39 51°18.918 2°52.518 6.4728 3.410132 33.960176 0.427218
2011-02-14 08:09:44 51°18.937 2°52.517 6.4714 3.409395 33.952865 0.427218
2011-02-14 08:09:48 51°18.952 2°52.516 6.4686 3.408551 33.941843 0.392394
2011-02-14 08:09:53 51°18.971 2°52.515 6.4669 3.41203 33.980311 0.462042
2011-02-14 08:09:59 51°18.995 2°52.513 6.4676 3.411292 33.974698 0.566514
2011-02-14 08:10:04 51°19.014 2°52.512 6.47 3.411292 33.974698 0.566514
2011-02-14 08:10:08 51°19.029 2°52.51 6.4673 3.413189 33.996533 0.462042
2011-02-14 08:10:12 51°19.045 2°52.509 6.4693 3.412662 33.991553 0.636162
2011-02-14 08:10:18 51°19.068 2°52.506 6.4706 3.41087 33.972581 0.392394
2011-02-14 08:10:24 51°19.091 2°52.505 6.4673 3.410554 33.969083 0.462042
2011-02-14 08:10:28 51°19.106 2°52.503 6.4648 3.410765 33.972264 0.566514
2011-02-14 08:10:33 51°19.125 2°52.501 6.4713 3.410765 33.972264 0.566514
2011-02-14 08:10:38 51°19.144 2°52.497 6.4652 3.411292 33.978943 0.670986
2011-02-14 08:10:44 51°19.167 2°52.493 6.4678 3.410765 33.973962 0.636162
2011-02-14 08:10:48 51°19.182 2°52.49 6.4656 3.408551 33.951174 0.496866
2011-02-14 08:10:54 51°19.205 2°52.489 6.4645 3.409922 33.965483 0.53169
2011-02-14 08:10:59 51°19.224 2°52.488 6.4648 3.408235 33.947677 0.636162
2011-02-14 08:11:03 51°19.239 2°52.488 6.4616 3.408235 33.947677 0.636162
2011-02-14 08:11:08 51°19.259 2°52.488 6.4624 3.409395 33.961351 0.53169
2011-02-14 08:11:13 51°19.278 2°52.488 6.4626 3.407392 33.939198 0.636162
2011-02-14 08:11:18 51°19.297 2°52.489 6.4654 3.406759 33.93305 0.53169
2011-02-14 08:11:24 51°19.32 2°52.491 6.4641 3.40813 33.946511 0.462042
2011-02-14 08:11:28 51°19.336 2°52.492 6.4634 3.408024 33.945345 0.53169
2011-02-14 08:11:34 51°19.359 2°52.493 6.4607 3.408024 33.945345 0.53169
2011-02-14 08:11:39 51°19.378 2°52.494 6.4592 3.408446 33.950008 0.601338
2011-02-14 08:11:44 51°19.398 2°52.492 6.4587 3.407286 33.940577 0.53169
2011-02-14 08:11:48 51°19.413 2°52.49 6.459 3.408762 33.958599 0.601338
2011-02-14 08:11:54 51°19.435 2°52.485 6.4576 3.408551 33.955418 0.601338
2011-02-14 08:11:59 51°19.454 2°52.479 6.4586 3.407919 33.950967 0.670986
2011-02-14 08:12:04 51°19.472 2°52.474 6.4608 3.407919 33.950967 0.670986
2011-02-14 08:12:08 51°19.487 2°52.468 6.4574 3.409922 33.972276 0.601338
2011-02-14 08:12:13 51°19.506 2°52.461 6.4571 3.409606 33.971325 0.670986
2011-02-14 08:12:19 51°19.527 2°52.451 6.4578 3.409078 33.964644 0.601338
2011-02-14 08:12:24 51°19.545 2°52.444 6.4611 3.408341 33.960726 0.775459
2011-02-14 08:12:28 51°19.56 2°52.438 6.4575 3.409079 33.968891 0.70581
2011-02-14 08:12:34 51°19.582 2°52.429 6.4557 3.409079 33.968891 0.70581
2011-02-14 08:12:38 51°19.597 2°52.423 6.4561 3.409184 33.971756 0.810283
2011-02-14 08:12:44 51°19.619 2°52.413 6.4669 3.407181 33.948745 0.670986
2011-02-14 08:12:48 51°19.633 2°52.407 6.464 3.408973 33.968573 0.740634
2011-02-14 08:12:53 51°19.652 2°52.399 6.46 3.409184 33.970906 0.740634
2011-02-14 08:12:58 51°19.67 2°52.393 6.4575 3.409922 33.979921 0.879931
2011-02-14 08:13:04 51°19.692 2°52.383 6.4558 3.409922 33.979921 0.879931
2011-02-14 08:13:08 51°19.707 2°52.377 6.4539 3.41066 33.986387 0.775459
2011-02-14 08:13:14 51°19.728 2°52.365 6.4539 3.410027 33.980238 0.775459
2011-02-14 08:13:19 51°19.746 2°52.356 6.4514 3.41066 33.986387 0.810283
2011-02-14 08:13:24 51°19.764 2°52.346 6.4505 3.410027 33.978539 0.740634
2011-02-14 08:13:28 51°19.778 2°52.338 6.4464 3.409922 33.976523 0.845107
2011-02-14 08:13:34 51°19.799 2°52.327 6.4435 3.409922 33.976523 0.845107
2011-02-14 08:13:39 51°19.817 2°52.317 6.4425 3.409606 33.973873 0.775459
2011-02-14 08:13:44 51°19.835 2°52.308 6.446 3.410027 33.980238 0.810283
2011-02-14 08:13:48 51°19.849 2°52.3 6.4455 3.411819 34.002619 0.845107
2011-02-14 08:13:53 51°19.867 2°52.291 6.4493 3.409606 33.978971 0.879931
2011-02-14 08:13:59 51°19.888 2°52.28 6.4432 3.41203 34.007504 0.845107
2011-02-14 08:14:04 51°19.907 2°52.27 6.4441 3.41203 34.007504 0.845107
2011-02-14 08:14:08 51°19.921 2°52.263 6.4424 3.410238 33.99192 0.845107
2011-02-14 08:14:13 51°19.939 2°52.254 6.4352 3.409922 33.99097 0.879931
2011-02-14 08:14:19 51°19.96 2°52.243 6.4315 3.409184 33.985353 0.740634
2011-02-14 08:14:24 51°19.978 2°52.233 6.4365 3.409606 33.98832 0.879931
2011-02-14 08:14:28 51°19.992 2°52.226 6.4355 3.412452 34.019828 0.914755
2011-02-14 08:14:33 51°20.01 2°52.216 6.4297 3.412452 34.019828 0.914755
2011-02-14 08:14:38 51°20.028 2°52.206 6.4218 3.411609 34.009641 0.810283
2011-02-14 08:14:44 51°20.049 2°52.195 6.4298 3.41319 34.030551 0.810283
2011-02-14 08:14:48 51°20.063 2°52.187 6.4162 3.411925 34.019099 0.845107
2011-02-14 08:14:54 51°20.084 2°52.176 6.416 3.411925 34.01995 0.879931
2011-02-14 08:14:59 51°20.102 2°52.166 6.4124 3.408973 33.992373 0.949579
2011-02-14 08:15:04 51°20.12 2°52.156 6.4035 3.408973 33.992373 0.949579
2011-02-14 08:15:08 51°20.134 2°52.149 6.4022 3.411714 34.023574 0.879931
2011-02-14 08:15:13 51°20.152 2°52.14 6.3967 3.409395 33.999594 0.845107
2011-02-14 08:15:19 51°20.173 2°52.128 6.3955 3.410449 34.015524 0.879931
2011-02-14 08:15:24 51°20.19 2°52.119 6.3881 3.41203 34.034742 0.845107
2011-02-14 08:15:28 51°20.204 2°52.112 6.3918 3.412558 34.044841 0.810283
2011-02-14 08:15:34 51°20.224 2°52.102 6.3869 3.412558 34.044841 0.810283
2011-02-14 08:15:39 51°20.239 2°52.094 6.3818 3.409817 34.016182 0.775459
2011-02-14 08:15:44 51°20.255 2°52.086 6.3817 3.410766 34.033508 0.949579
2011-02-14 08:15:48 51°20.268 2°52.081 6.3821 3.41066 34.037454 0.914755
2011-02-14 08:15:53 51°20.283 2°52.073 6.3751 3.409395 34.026844 0.845107
2011-02-14 08:15:58 51°20.298 2°52.066 6.3847 3.409922 34.036949 0.740634
2011-02-14 08:16:04 51°20.316 2°52.057 6.3737 3.409922 34.036949 0.740634
2011-02-14 08:16:08 51°20.327 2°52.052 6.3704 3.409501 34.035685 0.949579
2011-02-14 08:16:14 51°20.345 2°52.043 6.3626 3.407603 34.018913 0.740634
2011-02-14 08:16:19 51°20.359 2°52.036 6.3636 3.406339 34.009151 0.879931
2011-02-14 08:16:24 51°20.373 2°52.029 6.3589 3.405811 34.006717 0.775459
2011-02-14 08:16:28 51°20.385 2°52.023 6.3622 3.406549 34.017456 0.775459
2011-02-14 08:16:34 51°20.401 2°52.015 6.3563 3.406549 34.017456 0.775459
2011-02-14 08:16:39 51°20.415 2°52.008 6.357 3.405285 34.007692 0.879931
2011-02-14 08:16:44 51°20.43 2°52.001 6.3631 3.40539 34.009713 0.949579
2011-02-14 08:16:48 51°20.441 2°51.995 6.3532 3.404336 34.001433 0.775459
2011-02-14 08:16:53 51°20.455 2°51.989 6.3578 3.402966 33.991349 0.879931
2011-02-14 08:16:59 51°20.472 2°51.982 6.353 3.403493 34.000605 0.740634
2011-02-14 08:17:04 51°20.487 2°51.975 6.3492 3.403493 34.000605 0.740634
2011-02-14 08:17:08 51°20.498 2°51.97 6.3547 3.405917 34.030061 0.810283
2011-02-14 08:17:13 51°20.512 2°51.964 6.3527 3.404652 34.01688 0.740634
2011-02-14 08:17:19 51°20.529 2°51.957 6.35 3.405074 34.024119 0.740634
2011-02-14 08:17:24 51°20.543 2°51.951 6.35 3.404336 34.017638 0.810283
2011-02-14 08:17:28 51°20.554 2°51.945 6.3456 3.403598 34.011157 0.70581
2011-02-14 08:17:33 51°20.567 2°51.939 6.3519 3.403598 34.011157 0.70581
2011-02-14 08:17:38 51°20.58 2°51.932 6.3474 3.405074 34.028386 0.740634
2011-02-14 08:17:43 51°20.592 2°51.924 6.352 3.403177 34.009891 0.740634
2011-02-14 08:17:48 51°20.604 2°51.918 6.3472 3.407182 34.053492 0.740634
2011-02-14 08:17:54 51°20.618 2°51.91 6.3476 3.399803 33.975019 0.775459
2011-02-14 08:17:59 51°20.629 2°51.903 6.3438 3.400541 33.983207 0.810283
2011-02-14 08:18:04 51°20.64 2°51.895 6.3472 3.400541 33.983207 0.810283
2011-02-14 08:18:08 51°20.649 2°51.89 6.3442 3.395903 33.9343 0.879931
2011-02-14 08:18:13 51°20.66 2°51.883 6.3438 3.390632 33.875831 0.914755
2011-02-14 08:18:19 51°20.673 2°51.875 6.3475 3.398644 33.965562 0.845107
2011-02-14 08:18:24 51°20.684 2°51.868 6.347 3.401595 33.997463 0.775459
2011-02-14 08:18:28 51°20.693 2°51.863 6.3479 3.407393 34.063523 0.740634
2011-02-14 08:18:34 51°20.706 2°51.855 6.3477 3.407393 34.063523 0.740634
2011-02-14 08:18:39 51°20.717 2°51.849 6.3459 3.407288 34.063208 0.914755
2011-02-14 08:18:44 51°20.728 2°51.842 6.3467 3.408553 34.079817 0.810283
2011-02-14 08:18:48 51°20.737 2°51.837 6.3441 3.406339 34.055239 0.810283
2011-02-14 08:18:54 51°20.75 2°51.83 6.3456 3.408869 34.082473 0.53169
2011-02-14 08:18:58 51°20.759 2°51.826 6.3461 3.407815 34.070769 0.949579
2011-02-14 08:19:04 51°20.772 2°51.819 6.3443 3.407815 34.070769 0.949579
2011-02-14 08:19:08 51°20.781 2°51.814 6.3433 3.408342 34.07491 0.670986
2011-02-14 08:19:14 51°20.794 2°51.807 6.343 3.406655 34.056186 0.775459
2011-02-14 08:19:18 51°20.802 2°51.803 6.3491 3.409396 34.087469 0.670986
2011-02-14 08:19:24 51°20.815 2°51.795 6.3487 3.409185 34.085984 0.601338
2011-02-14 08:19:28 51°20.824 2°51.791 6.3532 3.409607 34.090666 0.740634
2011-02-14 08:19:34 51°20.837 2°51.784 6.3474 3.409607 34.090666 0.740634
2011-02-14 08:19:38 51°20.846 2°51.779 6.3427 3.410556 34.1012 0.775459
2011-02-14 08:19:44 51°20.858 2°51.771 6.3432 3.409923 34.095033 0.810283
2011-02-14 08:19:48 51°20.866 2°51.766 6.3411 3.410977 34.105882 0.810283
2011-02-14 08:19:53 51°20.877 2°51.759 6.3429 3.409185 34.086839 0.810283
2011-02-14 08:19:59 51°20.89 2°51.751 6.3427 3.409607 34.090666 0.740634
2011-02-14 08:20:04 51°20.9 2°51.744 6.3395 3.409607 34.090666 0.740634
2011-02-14 08:20:08 51°20.908 2°51.738 6.3448 3.409291 34.083733 0.775459
2011-02-14 08:20:13 51°20.918 2°51.731 6.3412 3.409291 34.084588 0.775459
2011-02-14 08:20:19 51°20.93 2°51.721 6.3423 3.410029 34.093636 0.775459
2011-02-14 08:20:24 51°20.94 2°51.713 6.3422 3.40908 34.085669 0.70581
2011-02-14 08:20:28 51°20.948 2°51.707 6.3441 3.409712 34.095259 0.740634
2011-02-14 08:20:33 51°20.958 2°51.699 6.3391 3.409712 34.095259 0.740634
2011-02-14 08:20:38 51°20.967 2°51.691 6.3397 3.410029 34.098771 0.740634
2011-02-14 08:20:44 51°20.979 2°51.681 6.3438 3.408869 34.085895 0.740634
2011-02-14 08:20:48 51°20.986 2°51.675 6.3423 3.408974 34.08621 0.740634
2011-02-14 08:20:54 51°20.999 2°51.664 6.3369 3.408869 34.085895 0.845107
2011-02-14 08:20:59 51°21.01 2°51.655 6.3403 3.408974 34.087065 0.810283
2011-02-14 08:21:04 51°21.021 2°51.645 6.3383 3.408974 34.087065 0.810283
2011-02-14 08:21:08 51°21.03 2°51.636 6.338 3.409818 34.096429 0.810283
2011-02-14 08:21:13 51°21.042 2°51.625 6.336 3.409607 34.096656 0.845107
2011-02-14 08:21:19 51°21.058 2°51.611 6.3395 3.409923 34.100168 0.810283
2011-02-14 08:21:24 51°21.071 2°51.598 6.3358 3.409502 34.096341 0.845107
2011-02-14 08:21:28 51°21.082 2°51.588 6.3382 3.41045 34.10859 0.845107
2011-02-14 08:21:34 51°21.098 2°51.572 6.3422 3.41045 34.10859 0.845107
2011-02-14 08:21:39 51°21.112 2°51.558 6.3405 3.410239 34.106248 0.775459
2011-02-14 08:21:44 51°21.127 2°51.544 6.3415 3.410239 34.106248 0.740634
2011-02-14 08:21:48 51°21.139 2°51.532 6.3372 3.410029 34.103051 0.636162
2011-02-14 08:21:53 51°21.154 2°51.517 6.3382 3.410239 34.105392 0.740634
2011-02-14 08:21:58 51°21.169 2°51.503 6.3411 3.409923 34.104448 0.775459
2011-02-14 08:22:04 51°21.187 2°51.485 6.341 3.409923 34.104448 0.775459
2011-02-14 08:22:08 51°21.2 2°51.474 6.3373 3.410239 34.106248 0.670986
2011-02-14 08:22:14 51°21.218 2°51.456 6.3407 3.409923 34.103592 0.601338
2011-02-14 08:22:19 51°21.233 2°51.441 6.3418 3.409923 34.10188 0.70581
2011-02-14 08:22:24 51°21.249 2°51.428 6.3415 3.410134 34.104221 0.740634
2011-02-14 08:22:28 51°21.262 2°51.417 6.3397 3.409923 34.103592 0.70581
2011-02-14 08:22:34 51°21.282 2°51.402 6.3368 3.409923 34.103592 0.70581
2011-02-14 08:22:39 51°21.298 2°51.389 6.3393 3.409923 34.10188 0.845107
2011-02-14 08:22:44 51°21.315 2°51.376 6.3411 3.410239 34.104536 0.810283
2011-02-14 08:22:48 51°21.328 2°51.367 6.3506 3.410345 34.106563 0.670986
2011-02-14 08:22:53 51°21.345 2°51.354 6.3441 3.410345 34.105707 0.601338
2011-02-14 08:22:59 51°21.365 2°51.34 6.3456 3.410661 34.107506 0.740634
2011-02-14 08:23:04 51°21.382 2°51.328 6.3429 3.410661 34.107506 0.740634
2011-02-14 08:23:08 51°21.396 2°51.319 6.3417 3.410766 34.108677 0.636162
2011-02-14 08:23:13 51°21.413 2°51.308 6.3446 3.410872 34.11156 0.636162
2011-02-14 08:23:19 51°21.434 2°51.295 6.3497 3.410767 34.11039 0.670986
2011-02-14 08:23:24 51°21.451 2°51.286 6.347 3.410977 34.112731 0.740634
2011-02-14 08:23:28 51°21.465 2°51.278 6.3461 3.410977 34.111019 0.775459
2011-02-14 08:23:33 51°21.483 2°51.27 6.349 3.410977 34.111019 0.775459
2011-02-14 08:23:38 51°21.501 2°51.263 6.3473 3.411188 34.112504 0.810283
2011-02-14 08:23:44 51°21.523 2°51.254 6.3496 3.41161 34.11633 0.775459
2011-02-14 08:23:48 51°21.538 2°51.25 6.3535 3.411821 34.121241 0.740634
2011-02-14 08:23:54 51°21.56 2°51.245 6.3513 3.412031 34.121869 0.670986
2011-02-14 08:23:58 51°21.575 2°51.244 6.3539 3.412453 34.123126 0.670986
2011-02-14 08:24:04 51°21.598 2°51.243 6.3532 3.412453 34.123126 0.670986
2011-02-14 08:24:08 51°21.613 2°51.243 6.3543 3.412769 34.126638 0.670986
2011-02-14 08:24:13 51°21.632 2°51.245 6.3594 3.413296 34.131635 0.636162
2011-02-14 08:24:19 51°21.655 2°51.247 6.3611 3.413718 34.136317 0.845107
2011-02-14 08:24:24 51°21.674 2°51.25 6.3551 3.41414 34.140143 0.70581
2011-02-14 08:24:28 51°21.689 2°51.252 6.356 3.414772 34.14374 0.670986
2011-02-14 08:24:34 51°21.712 2°51.256 6.3538 3.414772 34.14374 0.670986
2011-02-14 08:24:39 51°21.731 2°51.261 6.3544 3.415826 34.155446 0.636162
2011-02-14 08:24:44 51°21.749 2°51.264 6.3554 3.416248 34.158414 0.670986
2011-02-14 08:24:48 51°21.765 2°51.267 6.3559 3.416775 34.162553 0.636162
2011-02-14 08:24:53 51°21.783 2°51.269 6.3599 3.417302 34.166691 0.740634
2011-02-14 08:24:58 51°21.803 2°51.273 6.3618 3.41804 34.175743 0.670986
2011-02-14 08:25:04 51°21.825 2°51.274 6.3633 3.41804 34.175743 0.670986
2011-02-14 08:25:08 51°21.84 2°51.276 6.3589 3.418462 34.180425 0.670986
2011-02-14 08:25:14 51°21.863 2°51.279 6.3606 3.419094 34.188307 0.53169
2011-02-14 08:25:19 51°21.882 2°51.28 6.3599 3.419516 34.193848 0.70581
2011-02-14 08:25:24 51°21.901 2°51.282 6.3587 3.419938 34.200247 0.740634
2011-02-14 08:25:28 51°21.916 2°51.284 6.3619 3.420254 34.20376 0.70581
2011-02-14 08:25:33 51°21.935 2°51.287 6.3597 3.420254 34.20376 0.70581
2011-02-14 08:25:39 51°21.958 2°51.288 6.3594 3.42057 34.205556 0.670986
2011-02-14 08:25:44 51°21.977 2°51.291 6.3655 3.420781 34.204464 0.670986
2011-02-14 08:25:48 51°21.992 2°51.294 6.3654 3.421202 34.210006 0.740634
2011-02-14 08:25:53 51°22.011 2°51.297 6.3663 3.421097 34.208835 0.70581
2011-02-14 08:25:59 51°22.034 2°51.302 6.3644 3.421624 34.215547 0.601338
2011-02-14 08:26:04 51°22.053 2°51.307 6.3693 3.421624 34.215547 0.601338
2011-02-14 08:26:08 51°22.068 2°51.311 6.3686 3.42194 34.217343 0.775459
2011-02-14 08:26:13 51°22.087 2°51.315 6.3667 3.42173 34.216718 0.740634
2011-02-14 08:26:18 51°22.106 2°51.319 6.3675 3.422151 34.219684 0.636162
2011-02-14 08:26:23 51°22.125 2°51.324 6.3672 3.422362 34.220309 0.566514
2011-02-14 08:26:28 51°22.143 2°51.328 6.3679 3.422573 34.220933 0.740634
2011-02-14 08:26:34 51°22.166 2°51.334 6.3672 3.422573 34.220933 0.740634
2011-02-14 08:26:39 51°22.185 2°51.337 6.3688 3.422678 34.220387 0.566514
2011-02-14 08:26:44 51°22.204 2°51.342 6.3704 3.422678 34.221245 0.53169
2011-02-14 08:26:48 51°22.219 2°51.345 6.372 3.422784 34.220699 0.566514
2011-02-14 08:26:53 51°22.238 2°51.349 6.3765 3.423205 34.223664 0.566514
2011-02-14 08:26:59 51°22.261 2°51.354 6.3767 3.423205 34.225381 0.670986
2011-02-14 08:27:04 51°22.28 2°51.357 6.3748 3.423205 34.225381 0.670986
2011-02-14 08:27:08 51°22.295 2°51.36 6.3799 3.423416 34.226864 0.496866
2011-02-14 08:27:14 51°22.318 2°51.364 6.3801 3.423522 34.228893 0.566514
2011-02-14 08:27:19 51°22.336 2°51.369 6.3809 3.423627 34.229205 0.462042
2011-02-14 08:27:24 51°22.355 2°51.372 6.3817 3.423627 34.227488 0.70581
2011-02-14 08:27:28 51°22.371 2°51.376 6.3794 3.423838 34.228112 0.775459
2011-02-14 08:27:34 51°22.393 2°51.381 6.3829 3.423838 34.228112 0.775459
2011-02-14 08:27:38 51°22.408 2°51.385 6.3842 3.424049 34.228736 0.427218
2011-02-14 08:27:44 51°22.431 2°51.39 6.3863 3.423943 34.225849 0.496866
2011-02-14 08:27:48 51°22.446 2°51.393 6.3875 3.424681 34.234042 0.70581
2011-02-14 08:27:52 51°22.461 2°51.396 6.3901 3.424892 34.233807 0.462042
2011-02-14 08:27:59 51°22.488 2°51.401 6.3902 3.424681 34.230608 0.496866
2011-02-14 08:28:04 51°22.507 2°51.405 6.389 3.424681 34.230608 0.496866
2011-02-14 08:28:08 51°22.522 2°51.407 6.3914 3.424997 34.231544 0.636162
2011-02-14 08:28:14 51°22.545 2°51.411 6.3906 3.425313 34.234196 0.740634
2011-02-14 08:28:19 51°22.564 2°51.414 6.393 3.425419 34.236225 0.70581
2011-02-14 08:28:24 51°22.583 2°51.417 6.3954 3.425419 34.234508 0.775459
2011-02-14 08:28:28 51°22.598 2°51.42 6.3962 3.426051 34.238954 0.70581
2011-02-14 08:28:33 51°22.617 2°51.422 6.3964 3.426051 34.238954 0.70581
2011-02-14 08:28:39 51°22.64 2°51.427 6.3969 3.426473 34.241918 0.740634
2011-02-14 08:28:44 51°22.659 2°51.431 6.3996 3.426157 34.239266 0.636162
2011-02-14 08:28:48 51°22.674 2°51.434 6.4017 3.426789 34.245429 0.636162
2011-02-14 08:28:53 51°22.694 2°51.438 6.4014 3.426895 34.244023 0.670986
2011-02-14 08:28:59 51°22.717 2°51.443 6.406 3.426895 34.243165 0.566514
2011-02-14 08:29:04 51°22.736 2°51.446 6.4044 3.426895 34.243165 0.566514
2011-02-14 08:29:08 51°22.751 2°51.449 6.4056 3.427422 34.248157 0.740634
2011-02-14 08:29:13 51°22.77 2°51.454 6.406 3.427422 34.245581 0.636162
2011-02-14 08:29:18 51°22.789 2°51.458 6.4064 3.427843 34.248544 0.566514
2011-02-14 08:29:24 51°22.812 2°51.461 6.4079 3.428054 34.249167 0.670986
2011-02-14 08:29:28 51°22.827 2°51.464 6.4106 3.42816 34.250337 0.566514
2011-02-14 08:29:34 51°22.85 2°51.468 6.4114 3.42816 34.250337 0.566514
2011-02-14 08:29:39 51°22.869 2°51.472 6.4138 3.428476 34.25213 0.566514
2011-02-14 08:29:44 51°22.888 2°51.474 6.4144 3.428687 34.251895 0.566514
2011-02-14 08:29:48 51°22.903 2°51.478 6.4171 3.428897 34.253376 0.636162
2011-02-14 08:29:53 51°22.922 2°51.48 6.4174 3.429214 34.256027 0.496866
2011-02-14 08:29:59 51°22.945 2°51.485 6.4235 3.42953 34.257819 0.70581
2011-02-14 08:30:04 51°22.964 2°51.488 6.4205 3.42953 34.257819 0.70581
2011-02-14 08:30:08 51°22.979 2°51.491 6.4204 3.429741 34.2593 0.427218
2011-02-14 08:30:12 51°22.994 2°51.494 6.4215 3.429846 34.258753 0.70581
2011-02-14 08:30:19 51°23.021 2°51.498 6.4187 3.429846 34.257037 0.601338
2011-02-14 08:30:24 51°23.04 2°51.502 6.4194 3.430689 34.264676 0.670986
2011-02-14 08:30:28 51°23.055 2°51.503 6.4212 3.430584 34.262649 0.53169
2011-02-14 08:30:33 51°23.074 2°51.506 6.4226 3.430584 34.262649 0.53169
2011-02-14 08:30:38 51°23.093 2°51.509 6.4249 3.431006 34.264752 0.636162
2011-02-14 08:30:44 51°23.116 2°51.513 6.4234 3.431111 34.263346 0.70581
2011-02-14 08:30:48 51°23.131 2°51.516 6.424 3.431427 34.265996 0.670986
2011-02-14 08:30:53 51°23.15 2°51.519 6.4254 3.431322 34.264827 0.601338
2011-02-14 08:30:59 51°23.173 2°51.523 6.422 3.431744 34.269504 0.601338
2011-02-14 08:31:04 51°23.192 2°51.524 6.4258 3.431744 34.269504 0.601338
2011-02-14 08:31:08 51°23.207 2°51.528 6.4274 3.431744 34.267788 0.601338
2011-02-14 08:31:13 51°23.226 2°51.53 6.4248 3.431849 34.268957 0.636162
2011-02-14 08:31:19 51°23.249 2°51.533 6.4264 3.431954 34.269268 0.70581
2011-02-14 08:31:24 51°23.268 2°51.535 6.4281 3.432165 34.270749 0.670986
2011-02-14 08:31:28 51°23.283 2°51.538 6.4255 3.430689 34.254379 0.496866
2011-02-14 08:31:33 51°23.302 2°51.542 6.4273 3.430689 34.254379 0.496866
2011-02-14 08:31:38 51°23.321 2°51.545 6.4312 3.4309 34.25586 0.70581
2011-02-14 08:31:44 51°23.344 2°51.548 6.4286 3.432376 34.273087 0.775459
2011-02-14 08:31:48 51°23.359 2°51.551 6.4286 3.432271 34.269343 0.670986
2011-02-14 08:31:53 51°23.378 2°51.554 6.4245 3.432692 34.274878 0.740634
2011-02-14 08:31:59 51°23.401 2°51.557 6.4323 3.432798 34.273473 0.670986
2011-02-14 08:32:04 51°23.42 2°51.56 6.4309 3.432798 34.273473 0.670986
2011-02-14 08:32:08 51°23.435 2°51.563 6.4275 3.432903 34.273784 0.740634
2011-02-14 08:32:13 51°23.454 2°51.566 6.4269 3.432903 34.2755 0.70581
2011-02-14 08:32:19 51°23.477 2°51.57 6.4274 3.432692 34.272304 0.636162
2011-02-14 08:32:24 51°23.496 2°51.572 6.4266 3.432798 34.273473 0.740634
2011-02-14 08:32:28 51°23.512 2°51.574 6.425 3.432798 34.273473 0.775459
2011-02-14 08:32:33 51°23.531 2°51.577 6.4254 3.432798 34.273473 0.775459
2011-02-14 08:32:38 51°23.55 2°51.579 6.4255 3.432798 34.273473 0.670986
2011-02-14 08:32:44 51°23.573 2°51.582 6.4255 3.433008 34.274953 0.775459
2011-02-14 08:32:48 51°23.588 2°51.585 6.4255 3.432903 34.274642 0.775459
2011-02-14 08:32:54 51°23.611 2°51.587 6.4261 3.432692 34.271445 0.740634
2011-02-14 08:32:58 51°23.626 2°51.59 6.4268 3.432903 34.273784 0.670986
2011-02-14 08:33:04 51°23.649 2°51.593 6.4298 3.432903 34.273784 0.670986
2011-02-14 08:33:08 51°23.664 2°51.595 6.4288 3.432692 34.273162 0.70581
2011-02-14 08:33:13 51°23.683 2°51.599 6.4294 3.432903 34.278075 0.775459
2011-02-14 08:33:19 51°23.706 2°51.602 6.4304 3.432587 34.273709 0.601338
2011-02-14 08:33:24 51°23.725 2°51.604 6.4302 3.433008 34.279244 0.601338
2011-02-14 08:33:28 51°23.74 2°51.606 6.4282 3.433114 34.278697 0.70581
2011-02-14 08:33:33 51°23.76 2°51.61 6.426 3.433114 34.278697 0.70581
2011-02-14 08:33:39 51°23.782 2°51.613 6.4237 3.432798 34.274331 0.636162
2011-02-14 08:33:44 51°23.801 2°51.616 6.4275 3.432692 34.273162 0.670986
2011-02-14 08:33:48 51°23.817 2°51.617 6.4261 3.432903 34.273784 0.566514
2011-02-14 08:33:53 51°23.836 2°51.62 6.4275 3.432903 34.274642 0.636162
2011-02-14 08:33:58 51°23.855 2°51.622 6.427 3.432903 34.273784 0.740634
2011-02-14 08:34:04 51°23.877 2°51.625 6.4259 3.432903 34.273784 0.740634
2011-02-14 08:34:08 51°23.893 2°51.627 6.4289 3.433008 34.274095 0.740634
2011-02-14 08:34:12 51°23.908 2°51.629 6.4271 3.433008 34.275811 0.740634
2011-02-14 08:34:19 51°23.934 2°51.633 6.4291 3.432903 34.276358 0.53169
2011-02-14 08:34:24 51°23.953 2°51.636 6.4313 3.433325 34.281894 0.53169
2011-02-14 08:34:28 51°23.969 2°51.638 6.424 3.433008 34.277528 0.566514
2011-02-14 08:34:33 51°23.988 2°51.641 6.4268 3.433008 34.277528 0.566514
2011-02-14 08:34:39 51°24.01 2°51.644 6.425 3.432798 34.275189 0.636162
2011-02-14 08:34:44 51°24.03 2°51.646 6.4232 3.432903 34.276358 0.670986
2011-02-14 08:34:48 51°24.045 2°51.649 6.4229 3.432587 34.272851 0.601338
2011-02-14 08:34:54 51°24.067 2°51.652 6.4263 3.432903 34.2755 0.601338
2011-02-14 08:34:59 51°24.086 2°51.656 6.4272 3.432903 34.273784 0.601338
2011-02-14 08:35:04 51°24.105 2°51.661 6.4311 3.432903 34.273784 0.601338
2011-02-14 08:35:08 51°24.12 2°51.664 6.4275 3.432903 34.2755 0.670986
2011-02-14 08:35:13 51°24.139 2°51.671 6.4262 3.433114 34.279555 0.670986
2011-02-14 08:35:19 51°24.162 2°51.677 6.4276 3.432692 34.273162 0.566514
2011-02-14 08:35:24 51°24.18 2°51.683 6.4301 3.432692 34.274878 0.53169
2011-02-14 08:35:28 51°24.195 2°51.688 6.4268 3.432587 34.274567 0.53169
2011-02-14 08:35:33 51°24.214 2°51.694 6.4261 3.432587 34.274567 0.53169